GFSFLT1_sfc_30mbdewp_000.txt.gz
Dewpoint
64 61 61 61 61 60 59 59 60 60 61 61 60 59 58 61 62 60 58 59 57 55 59 60 59 59 60 60 60 62 63 62 61
66 63 63 62 61 60 60 60 59 59 60 62 63 62 62 61 60 58 57 55 58 58 57 57 58 60 60 60 60 60 61 62 61
65 64 63 62 61 60 61 61 61 61 60 60 61 63 63 62 60 59 57 57 59 58 57 59 58 58 59 59 60 59 59 59 59
64 66 64 63 62 62 62 62 61 61 62 61 61 63 63 63 62 61 59 59 60 59 59 59 59 59 59 58 58 58 59 59 59
63 65 64 63 63 63 62 61 62 62 62 62 63 63 62 62 61 61 61 61 62 61 61 59 59 59 59 59 59 58 58 59 58
61 63 63 64 63 63 63 63 63 64 64 63 63 63 62 60 60 60 60 61 62 61 61 60 59 59 59 60 59 60 60 58 58
59 61 62 62 62 63 64 64 65 64 63 62 62 61 60 59 60 60 60 61 62 62 62 62 62 62 62 62 60 61 61 61 60
59 59 60 60 60 61 62 61 61 61 61 61 60 59 59 59 60 60 60 62 62 62 62 62 62 62 63 63 62 63 63 63 63
60 60 60 60 61 61 61 58 54 51 51 52 51 50 53 56 58 59 60 60 57 59 57 59 61 62 62 61 62 63 63 62 62
61 61 60 58 57 53 46 45 45 44 44 43 44 45 47 47 51 51 51 54 57 58 57 58 58 60 60 60 61 61 61 61 62
55 44 45 47 45 43 41 40 39 38 40 38 39 39 40 42 41 45 47 49 51 51 48 49 54 58 57 56 58 58 58 59 60
42 40 41 43 41 38 36 33 32 35 35 34 35 35 32 37 39 43 39 42 42 45 45 51 41 45 44 46 48 52 53 53 53
38 37 37 39 35 33 32 30 29 32 31 30 31 30 32 36 35 33 33 38 39 38 45 36 35 35 38 43 42 43 44 48 49
34 33 35 34 31 29 29 26 29 30 28 29 31 26 31 35 25 27 31 35 33 33 37 34 35 35 37 35 38 39 38 40 42
30 29 31 30 27 28 28 25 27 30 30 31 26 25 34 29 18 25 28 29 25 33 25 29 28 35 31 33 34 35 38 42 43
27 27 28 29 26 27 28 27 26 28 30 29 25 29 29 23 17 25 19 25 18 27 22 28 26 27 31 26 29 32 33 36 40
26 26 27 27 25 23 25 26 24 28 30 26 28 23 24 23 19 23 23 19 24 24 23 27 28 25 23 24 27 26 33 36 36
25 25 24 25 24 21 23 22 22 20 25 26 23 21 22 21 24 19 21 19 24 20 26 24 25 22 18 23 22 30 31 32 34
23 23 22 22 22 19 20 21 20 20 17 23 25 25 25 19 17 21 18 22 18 23 24 25 25 19 21 20 25 26 27 28 32
20 20 19 19 20 18 17 17 15 19 18 20 21 20 22 21 19 15 18 17 18 22 23 24 21 20 19 22 24 23 26 32 32

GFSFLT1_sfc_30mbdewp_003.txt.gz
Dewpoint
62 60 61 61 61 60 59 60 60 60 61 62 62 61 60 60 62 61 60 59 58 59 57 58 60 59 59 60 60 60 63 63 62
64 63 63 62 62 60 60 60 60 60 60 60 61 62 63 62 60 59 59 57 58 57 58 58 57 57 59 58 58 59 59 60 59
65 64 64 63 62 61 61 62 62 62 61 61 60 62 63 63 62 61 60 59 60 59 58 58 58 59 58 57 58 57 58 58 58
64 66 64 64 63 62 63 63 61 61 62 62 62 63 63 63 62 61 61 61 62 62 62 60 60 59 59 60 59 58 58 57 57
63 66 65 64 64 64 63 62 63 63 63 63 64 64 63 62 61 61 61 62 62 63 63 62 62 61 60 60 60 60 60 59 57
61 63 63 64 64 63 63 64 64 64 64 64 64 63 62 60 60 60 61 62 63 63 63 63 62 62 62 62 61 60 61 61 61
59 61 63 64 64 64 64 64 64 61 62 61 61 59 58 58 59 60 61 62 62 60 61 63 63 62 62 62 62 61 62 62 62
60 59 60 60 60 61 62 61 57 52 52 50 49 49 52 52 55 58 60 58 56 55 58 59 60 61 62 61 62 63 63 63 63
60 60 61 61 61 60 51 46 44 41 42 41 41 41 43 45 47 50 52 55 55 56 56 56 57 60 61 61 61 62 62 62 62
61 57 51 48 46 43 40 39 36 36 35 34 36 36 37 36 42 46 46 52 50 48 50 54 55 53 54 55 57 59 58 59 59
43 44 45 42 41 39 35 32 33 32 31 29 31 33 29 36 38 41 39 46 42 47 50 45 44 43 47 50 51 51 50 49 49
41 41 40 38 34 32 28 27 30 28 27 26 29 32 27 35 29 32 34 38 36 44 38 38 39 40 44 42 44 46 46 45 46
36 37 36 32 29 28 26 26 26 28 25 24 29 29 28 30 20 27 28 36 29 36 32 36 34 40 39 39 40 40 41 42 44
32 34 32 29 27 27 26 23 26 28 24 25 28 26 28 28 18 25 24 28 22 31 27 34 33 36 35 35 36 38 40 43 45
28 30 29 27 25 26 24 23 24 29 25 27 25 26 33 25 18 25 21 22 20 28 23 28 28 33 32 31 33 34 33 35 39
27 28 27 26 24 25 24 24 22 24 27 28 25 27 29 26 19 23 21 20 21 24 22 26 26 28 27 25 28 27 30 36 37
26 26 25 23 21 20 21 22 20 21 26 23 27 19 22 24 15 20 22 18 23 20 21 24 25 28 21 23 26 25 34 35 36
24 23 22 21 21 18 20 20 18 16 19 26 16 11 16 19 21 14 19 14 22 18 22 25 24 26 21 22 24 29 30 32 34
22 21 20 20 19 17 17 18 17 19 15 20 19 21 22 17 15 19 13 20 17 18 21 23 26 23 21 22 25 27 28 31 34
19 19 17 17 18 17 15 15 13 16 16 17 18 19 18 20 19 11 14 16 15 13 17 23 19 22 19 22 26 25 26 28 30

GFSFLT1_sfc_30mbdewp_006.txt.gz
Dewpoint
62 60 60 61 61 60 59 60 60 60 60 61 62 63 62 62 60 60 59 60 59 57 59 59 57 59 58 59 59 61 61 63 64
64 63 62 62 62 60 60 60 61 61 61 61 61 62 63 63 61 60 60 59 60 59 58 58 57 57 57 58 58 58 56 59 60
65 65 64 63 62 62 61 62 62 62 61 62 62 62 63 63 62 61 61 61 62 62 62 60 59 59 60 59 58 57 58 57 58
64 66 64 64 64 63 63 63 62 62 63 63 63 64 64 64 62 61 61 61 62 63 63 63 62 61 60 61 62 61 60 59 58
63 66 65 64 64 64 63 64 64 64 64 64 65 64 63 61 60 60 60 62 63 64 64 64 64 63 62 62 61 61 62 62 61
61 62 62 63 64 64 64 65 65 63 62 62 62 59 58 56 57 58 60 62 63 62 61 62 63 63 63 63 62 62 61 61 62
59 60 62 63 63 62 63 63 58 52 52 49 49 49 50 50 52 56 59 59 57 57 56 59 61 60 61 62 62 63 63 63 63
59 59 60 60 61 61 56 46 44 41 40 40 40 41 43 43 44 49 54 55 55 55 56 56 57 60 61 61 61 62 62 63 63
59 61 60 59 57 43 42 38 37 35 33 33 33 35 32 34 41 45 52 52 50 52 53 56 56 54 55 56 58 57 58 59 60
60 51 46 44 41 37 33 32 32 28 27 26 30 31 28 36 37 39 47 44 49 52 48 48 47 48 51 52 52 52 52 52 51
46 44 41 38 36 31 28 29 29 25 25 21 28 30 27 32 30 32 37 38 44 42 42 42 42 46 46 46 47 47 48 48 48
42 39 35 32 30 27 25 25 28 23 22 19 26 29 28 22 25 26 33 29 36 36 37 38 40 42 42 44 43 43 44 44 46
37 34 30 28 27 25 23 24 23 24 21 19 24 27 28 22 21 22 28 25 28 29 32 33 34 37 37 39 40 40 41 44 47
33 29 27 27 25 23 22 22 23 26 20 20 24 26 27 22 20 21 25 20 25 26 26 28 30 32 34 34 35 38 37 37 37
29 27 25 24 23 20 20 20 22 28 25 24 22 27 32 24 19 22 23 20 23 24 21 24 26 30 31 31 31 33 32 33 37
27 26 24 22 21 20 21 20 19 18 26 23 20 25 28 28 25 17 22 18 20 22 19 20 24 26 30 27 26 28 29 33 38
25 23 22 21 19 18 18 17 15 18 24 15 23 14 15 18 12 19 20 15 21 19 18 20 20 24 27 25 25 24 27 33 36
22 21 20 19 19 17 18 17 16 15 17 24 14 6 9 19 20 17 19 12 19 17 19 18 18 24 25 23 24 27 28 30 34
21 20 19 18 18 15 16 16 17 17 14 17 18 18 19 11 14 16 11 17 14 17 16 15 21 23 21 24 24 26 27 29 30
19 17 17 16 16 15 14 14 13 16 15 15 16 18 18 21 16 9 12 13 13 14 14 17 15 17 22 21 24 28 25 27 28

GFSFLT1_sfc_30mbdewp_009.txt.gz
Dewpoint
62 59 60 61 61 59 59 60 60 60 61 61 61 62 63 62 61 61 61 60 60 59 57 59 59 56 57 58 59 60 61 61 62
64 63 62 62 61 60 60 62 62 62 62 62 61 61 63 61 61 61 61 61 62 62 61 59 59 58 58 57 57 57 57 58 58
65 64 63 63 62 63 62 63 63 62 62 63 63 64 64 62 61 61 61 61 62 63 63 63 61 60 60 60 59 58 58 57 59
65 65 64 64 64 63 64 64 63 64 64 64 65 65 64 62 61 61 60 61 63 63 63 63 64 63 62 61 61 62 62 61 60
64 66 65 64 64 64 64 65 65 65 64 64 62 60 58 55 56 57 58 62 63 63 63 63 63 64 64 64 63 62 62 62 62
61 62 63 63 64 64 64 64 60 58 54 52 52 51 49 47 49 53 59 61 62 60 59 58 60 62 62 63 63 64 63 63 63
59 60 62 63 62 63 59 52 47 44 42 41 41 40 42 41 41 45 55 55 55 56 56 56 58 59 60 61 61 61 62 63 63
60 60 60 61 61 52 45 41 38 36 34 34 33 35 31 33 41 46 54 53 53 53 54 56 59 56 57 59 61 61 61 62 62
60 61 59 55 45 42 37 35 31 28 26 27 30 29 31 37 41 44 48 50 53 54 52 51 51 51 55 54 54 54 54 54 54
58 47 44 41 38 33 31 31 26 23 23 23 29 26 33 30 35 38 44 48 47 48 47 46 48 50 49 49 50 50 51 51 51
46 42 39 37 31 28 27 27 26 21 21 19 27 26 28 28 26 33 32 41 41 43 43 43 46 44 46 47 46 46 47 47 47
42 36 32 30 29 25 24 24 27 20 18 18 24 25 27 23 26 28 27 30 34 36 36 35 37 39 41 42 42 43 43 45 48
36 32 29 28 26 25 24 22 23 22 20 20 22 24 30 21 23 26 23 27 26 26 31 29 30 33 35 38 39 39 40 40 41
31 29 28 26 23 22 21 20 23 21 20 20 21 25 30 21 23 22 23 24 23 23 23 26 25 26 30 34 35 36 37 37 37
28 27 25 23 22 19 19 18 21 22 22 20 19 30 34 26 24 18 22 20 22 22 21 19 18 22 28 31 32 32 34 34 35
28 25 23 22 20 19 17 20 18 18 23 16 17 22 25 29 28 17 21 18 20 20 16 15 14 16 25 29 29 28 30 31 34
26 24 22 21 19 18 18 19 17 18 23 14 19 14 13 18 12 21 20 16 16 16 13 15 13 15 18 22 24 27 27 30 33
23 22 21 21 21 19 19 19 18 15 19 18 12 8 8 14 17 17 20 12 15 12 15 14 13 14 18 20 21 24 26 29 31
22 21 20 19 19 18 16 17 18 18 15 17 16 16 16 9 8 15 11 16 12 14 14 13 14 15 16 19 23 26 28 29 30
20 19 19 18 17 17 16 17 17 17 16 16 15 16 15 20 16 7 9 13 14 14 14 14 14 15 17 19 21 23 26 28 30

GFSFLT1_sfc_30mbdewp_012.txt.gz
Dewpoint
59 57 60 61 61 60 60 60 61 62 62 61 61 61 63 61 58 58 58 59 60 62 61 58 58 60 57 57 58 59 60 61 62
64 63 62 62 61 61 61 62 62 62 62 62 63 63 63 59 59 60 60 60 62 63 62 62 61 60 60 58 58 57 57 58 57
65 63 63 63 62 63 63 63 63 63 64 64 64 65 64 60 60 60 60 61 63 63 64 64 64 63 62 61 61 60 58 59 58
66 65 64 63 64 63 64 64 65 65 65 65 65 63 62 59 58 58 58 62 63 63 63 64 64 64 64 63 63 62 62 62 61
66 66 65 64 64 64 65 65 63 63 61 58 54 53 54 50 50 51 55 61 63 62 62 61 60 62 63 63 64 64 64 63 64
58 62 63 64 64 64 63 58 54 52 50 48 46 45 46 45 44 44 54 56 57 58 57 57 57 59 61 61 61 62 63 63 64
57 60 62 62 62 59 54 48 44 43 44 42 39 39 36 35 36 39 54 54 54 54 55 56 59 58 58 60 61 62 62 63 63
57 58 59 61 60 53 49 45 41 38 35 33 31 31 28 29 35 46 51 52 52 53 57 54 54 55 56 55 56 56 56 56 57
58 59 60 57 50 47 43 40 34 29 26 25 26 26 28 31 34 44 52 53 53 53 51 51 53 52 52 52 52 52 52 53 53
59 51 48 45 42 39 37 32 26 23 22 20 24 24 27 28 33 39 47 47 48 48 48 50 48 48 49 50 49 48 49 50 50
51 44 42 40 35 29 26 25 24 21 19 19 21 22 25 26 30 31 38 42 42 41 41 41 41 42 44 45 45 46 46 47 48
45 38 35 32 27 25 24 23 24 21 19 19 20 21 23 25 29 27 28 30 35 36 35 34 34 35 37 39 41 42 42 43 43
39 35 32 27 26 25 23 20 22 21 20 20 20 21 25 22 23 23 23 25 23 25 31 30 30 30 31 34 37 38 38 40 40
32 31 28 26 24 23 19 20 20 20 20 17 15 24 27 23 21 22 23 24 24 22 21 23 20 23 30 33 35 36 36 37 37
31 28 26 24 23 20 19 19 20 20 19 18 18 29 30 25 26 23 20 19 21 20 19 17 16 17 23 29 32 32 33 35 35
29 27 25 23 21 19 17 19 18 19 18 15 17 20 23 30 29 15 17 18 18 16 14 15 15 14 18 21 27 31 32 33 34
29 26 24 22 21 20 19 20 18 18 18 15 18 14 15 16 20 17 16 13 13 14 13 16 14 15 16 18 24 25 29 32 35
26 25 23 23 22 21 20 19 17 16 18 16 13 10 11 11 13 16 15 14 13 13 16 15 14 15 15 17 19 23 29 31 33
23 22 21 21 20 20 16 17 17 16 15 16 14 13 13 9 10 13 13 13 13 15 15 15 15 15 16 17 20 23 27 29 31
22 21 20 19 18 18 17 18 16 16 15 15 14 14 14 15 15 12 12 14 15 15 15 15 15 14 16 17 19 23 25 29 31

GFSFLT1_sfc_30mbdewp_015.txt.gz
Dewpoint
60 59 60 62 60 60 61 62 62 62 62 62 62 62 63 60 57 57 58 59 62 62 62 61 60 59 60 59 58 59 59 60 62
63 62 62 62 61 61 62 63 63 63 63 63 64 64 64 62 59 58 59 62 62 63 62 63 63 62 61 61 60 59 58 58 58
64 63 63 62 63 63 63 64 64 64 65 65 65 65 64 60 58 58 58 63 63 63 62 64 64 64 64 64 63 62 62 60 60
65 64 64 64 64 64 64 66 66 65 64 63 61 59 59 57 54 54 54 61 62 63 61 63 62 62 63 64 64 64 63 63 63
66 65 65 64 64 64 65 63 63 60 57 54 51 50 53 50 48 47 54 56 59 60 60 59 58 58 61 62 62 62 63 64 64
59 61 63 64 64 64 60 55 51 52 49 44 41 43 43 41 40 41 53 53 54 55 56 57 58 60 60 61 62 63 63 63 63
57 61 63 63 63 59 54 48 44 46 45 42 41 35 33 32 34 47 52 53 52 52 58 57 56 58 58 57 58 58 58 58 58
57 59 59 61 61 55 52 48 44 40 35 31 29 30 29 30 33 49 54 54 54 56 55 54 56 55 54 55 54 54 54 54 55
55 55 58 58 54 51 47 44 38 31 26 24 25 26 25 29 31 48 51 53 53 53 53 53 51 51 53 52 52 51 51 53 53
56 56 53 50 46 44 41 36 29 26 24 22 21 24 24 26 31 43 47 48 48 47 47 47 46 46 47 47 47 48 49 49 49
55 51 48 45 40 34 29 27 27 25 23 20 20 22 23 26 29 34 40 43 42 41 40 39 38 38 39 41 42 44 44 44 45
52 45 42 39 32 28 28 26 25 24 22 21 21 21 23 25 29 29 31 37 37 36 36 35 34 35 35 36 38 40 41 40 42
48 42 38 32 30 29 26 23 23 23 23 22 20 22 23 23 24 25 24 27 24 33 29 28 27 29 33 36 37 39 39 39 40
39 37 34 30 28 26 21 23 23 23 22 20 17 27 25 24 21 23 24 25 25 25 23 22 22 22 26 32 35 37 37 37 39
37 35 30 29 27 24 23 23 23 22 21 19 19 27 29 25 25 25 23 21 21 21 21 20 20 19 21 25 29 34 36 36 37
36 32 29 27 26 24 22 23 23 23 21 20 22 23 23 30 29 27 19 19 17 17 17 19 20 18 20 21 25 31 32 36 37
33 31 29 27 26 25 25 25 23 22 21 18 21 19 19 20 19 20 19 15 16 16 17 19 18 19 20 21 24 25 30 34 36
32 30 28 28 28 27 25 24 21 22 21 18 17 15 16 15 15 18 17 18 16 16 19 18 18 18 19 20 21 22 27 32 33
29 28 28 27 26 25 21 21 21 20 20 19 15 16 14 13 13 15 18 17 15 17 19 18 18 18 18 18 20 22 26 30 32
27 26 26 25 24 22 22 22 19 19 18 18 18 16 17 17 16 17 17 18 18 19 18 18 17 17 17 19 20 21 25 28 32

GFSFLT1_sfc_30mbdewp_018.txt.gz
Dewpoint
60 60 62 61 60 61 62 63 63 63 62 62 63 63 63 60 60 58 59 62 63 63 62 61 63 61 60 61 60 59 60 59 60
60 62 63 62 62 62 63 64 64 63 64 65 65 64 63 62 61 59 62 63 63 63 62 64 65 65 63 63 62 62 61 60 59
64 63 63 63 63 63 64 64 65 66 66 65 65 64 62 60 58 56 61 62 62 62 60 63 64 63 64 65 64 65 63 63 62
65 64 64 64 63 64 66 65 65 64 63 60 56 54 55 55 51 54 56 57 58 61 60 60 59 59 61 63 63 63 63 64 64
66 65 65 64 64 65 64 63 61 59 55 49 46 46 49 51 45 52 54 52 53 56 58 58 58 61 62 62 63 64 64 64 64
65 64 64 65 64 63 59 55 52 52 50 45 41 43 37 34 42 52 53 51 52 53 57 59 59 60 59 59 59 59 59 59 59
61 62 64 64 63 60 55 49 45 46 43 42 36 34 30 32 44 53 52 50 50 59 57 59 57 57 56 56 56 56 56 56 56
60 60 62 62 60 55 51 48 42 37 32 30 27 29 29 31 49 54 56 57 57 55 57 55 54 55 55 54 54 53 54 55 56
57 59 60 61 59 50 46 42 35 29 26 25 23 26 25 29 47 52 53 53 53 54 53 51 51 50 51 50 50 50 51 51 51
56 58 55 51 45 43 38 31 29 27 25 23 21 23 25 26 45 48 49 48 48 47 46 45 43 42 42 43 44 45 46 46 47
54 51 50 44 38 32 29 27 28 26 24 23 21 22 25 26 37 42 45 44 42 40 40 39 38 38 39 39 40 41 42 43 43
51 48 45 37 31 30 28 26 27 25 25 24 24 22 24 25 29 37 37 39 38 36 34 33 33 34 36 39 40 41 41 41 41
47 44 39 33 32 30 26 25 27 26 25 23 20 23 24 24 26 25 29 29 33 34 29 26 26 27 30 35 37 39 40 41 41
46 41 34 32 30 27 25 25 25 23 23 21 20 30 27 24 23 24 25 26 25 25 24 25 25 24 26 30 33 37 38 39 39
38 36 32 31 28 26 26 26 26 24 22 21 23 28 30 26 25 26 25 23 21 22 21 21 22 23 25 27 29 33 35 37 40
38 33 31 30 27 25 25 25 25 23 22 23 23 26 27 31 29 30 20 20 19 17 18 20 20 21 22 22 25 30 32 36 38
35 32 30 28 27 27 26 26 25 24 22 18 22 20 22 23 22 23 21 18 18 18 18 19 19 19 20 23 24 26 28 32 36
34 32 30 30 30 28 26 24 24 23 22 18 17 15 18 16 20 20 19 18 19 17 20 20 19 19 18 22 23 22 26 30 34
32 31 30 30 29 26 24 23 22 24 20 21 18 17 16 14 13 19 19 20 19 20 19 19 19 18 19 21 23 22 25 29 32
30 30 29 28 26 21 23 23 21 20 20 20 19 19 19 18 17 16 18 19 19 20 20 19 19 18 18 19 19 20 25 28 30

GFSFLT1_sfc_30mbdewp_021.txt.gz
Dewpoint
61 62 61 61 62 62 63 63 63 63 63 63 63 63 63 63 61 59 62 62 64 63 61 63 63 63 61 60 61 61 60 60 60
61 63 62 62 62 63 64 64 64 64 65 65 65 64 63 61 59 62 63 63 63 63 59 63 65 65 65 65 64 63 62 61 60
64 63 63 64 62 64 65 65 66 66 65 64 63 61 60 57 56 58 60 61 61 61 58 62 62 61 62 63 63 64 65 64 63
65 64 64 64 63 65 66 65 65 64 61 57 53 52 53 54 55 53 55 55 55 58 60 59 59 62 63 63 64 64 64 64 65
66 65 65 64 65 65 64 64 62 59 54 48 44 46 40 44 52 53 54 52 53 54 56 58 61 61 61 60 60 60 60 60 62
66 65 65 65 65 63 61 58 55 52 50 47 46 36 31 41 51 52 52 49 51 60 60 60 60 59 58 57 58 58 58 58 58
64 64 64 65 64 61 57 51 47 44 41 35 31 32 29 44 52 57 55 53 59 59 58 58 57 57 57 56 55 56 57 58 58
61 63 63 64 61 59 54 48 40 34 29 26 25 27 30 49 53 57 58 57 54 57 55 55 54 54 53 53 53 53 53 53 53
59 60 61 61 60 55 50 41 30 26 25 23 22 24 28 47 51 55 55 54 54 53 51 49 48 47 47 47 47 48 48 48 48
58 59 60 58 50 42 32 29 28 26 23 22 21 23 27 45 48 51 51 50 48 46 45 43 43 42 42 42 43 43 44 45 45
56 55 51 42 34 30 28 27 27 26 24 24 22 22 26 40 44 46 47 44 40 39 38 38 37 38 40 42 42 42 43 44 43
51 47 41 34 30 29 26 27 26 26 25 24 21 23 24 30 40 40 40 39 39 36 33 33 33 34 36 39 40 41 43 43 43
49 44 36 33 31 27 25 26 26 25 23 22 20 24 25 25 30 35 35 34 35 32 29 28 29 30 32 35 37 40 41 41 41
47 40 34 31 28 26 25 25 25 23 22 21 21 30 27 24 25 25 26 28 26 24 29 29 27 27 30 33 34 36 38 39 42
44 35 32 30 26 26 26 25 25 23 21 21 26 29 30 26 24 24 25 22 22 21 20 21 21 25 25 27 29 32 35 37 39
38 33 30 28 26 25 25 26 23 21 22 20 23 27 28 28 27 29 23 20 20 19 19 20 20 21 25 23 25 30 33 34 36
35 32 30 28 26 26 26 26 25 23 21 18 25 18 21 20 22 23 21 17 19 18 18 19 19 19 19 22 24 24 27 31 34
33 32 29 28 28 26 24 25 25 23 21 18 18 14 16 16 20 21 19 19 18 19 21 20 20 19 18 21 23 25 25 28 32
32 30 30 30 29 26 24 24 23 24 20 21 20 18 16 10 9 18 19 21 19 20 20 21 20 19 20 22 25 23 23 27 31
31 31 30 29 27 24 22 21 20 21 21 20 19 19 20 19 16 15 17 19 19 20 21 20 20 20 19 19 22 22 23 26 29

GFSFLT1_sfc_30mbdewp_027.txt.gz
Dewpoint
59 60 61 61 62 62 62 62 62 63 63 63 63 64 62 59 59 59 58 62 64 62 60 64 65 64 63 61 61 61 61 61 60
61 61 62 63 63 63 63 63 64 65 65 64 63 61 58 61 61 62 62 63 62 61 60 63 62 63 64 64 64 64 64 63 62
63 62 62 63 63 65 64 65 65 65 64 60 56 56 55 58 58 58 57 59 59 61 60 60 62 64 64 64 63 64 64 64 65
64 63 63 63 64 64 65 66 65 63 56 51 52 52 55 55 53 53 53 54 54 57 59 59 62 62 61 61 60 61 61 62 63
65 64 65 63 65 66 66 65 62 56 50 50 48 54 53 51 51 51 52 51 53 56 59 63 61 60 59 58 58 58 59 59 59
65 65 65 64 66 65 64 62 57 52 50 48 43 39 48 49 50 50 52 55 61 62 61 61 59 58 57 56 56 56 55 56 57
65 65 65 65 66 64 60 55 51 40 33 29 32 38 48 52 55 58 57 59 60 59 59 58 57 55 54 55 54 54 53 53 53
64 64 64 65 65 61 54 45 36 28 26 25 27 43 49 54 57 59 59 59 57 54 54 54 53 51 50 50 50 50 49 49 49
63 63 63 63 61 56 49 38 27 25 22 23 25 41 49 53 55 57 57 55 53 52 49 48 46 46 46 47 46 47 47 47 47
62 62 61 61 59 52 45 29 26 23 22 22 24 39 48 51 52 53 53 52 50 48 45 44 43 43 45 45 45 47 47 46 46
61 60 60 60 57 41 31 28 26 24 24 22 23 35 46 49 49 49 48 47 43 41 40 40 40 41 42 43 44 45 45 45 45
59 59 58 56 47 31 28 27 26 25 24 21 22 27 43 46 46 42 41 42 40 38 36 37 37 38 41 41 41 42 43 44 46
57 57 56 42 32 28 28 26 25 23 21 20 22 25 34 41 41 38 36 37 35 35 33 32 31 34 35 37 39 39 40 42 43
55 54 49 33 29 28 27 26 23 21 20 20 25 29 26 38 37 35 32 34 27 31 32 31 29 29 30 32 33 34 37 39 40
51 46 40 32 29 27 26 24 23 21 21 24 28 28 28 28 32 32 27 30 24 23 21 20 22 28 26 28 30 32 33 36 37
48 41 34 31 29 27 25 24 20 20 24 24 26 26 29 26 26 26 26 23 21 19 20 20 20 21 29 29 29 28 29 31 34
46 39 34 30 29 26 26 25 24 21 21 20 25 21 22 23 22 24 21 20 20 20 20 20 20 20 21 24 29 29 26 28 31
46 39 35 31 29 27 26 27 26 22 19 21 21 19 17 20 19 21 20 19 20 20 21 21 20 20 20 23 26 30 28 28 30
45 39 35 30 30 28 27 28 28 24 20 20 18 18 19 13 11 18 20 21 19 19 21 21 20 19 21 27 31 30 30 30 32
44 40 34 31 30 29 27 27 27 25 23 22 19 19 20 18 13 11 16 20 20 20 21 21 19 19 19 21 26 27 29 31 32

GFSFLT1_sfc_30mbdewp_030.txt.gz
Dewpoint
60 60 61 61 61 61 61 62 62 63 63 63 64 63 61 60 60 57 58 62 64 61 61 65 65 65 64 63 62 62 62 61 60
60 61 62 63 63 63 63 63 64 65 64 63 61 59 62 61 60 60 62 62 61 60 62 61 64 64 65 64 64 65 65 64 63
61 62 63 63 64 64 64 65 65 64 61 57 56 57 59 58 58 57 56 59 59 60 60 61 63 63 62 62 62 63 63 64 65
63 62 63 63 64 64 65 66 64 59 52 53 55 58 57 52 52 52 53 55 55 57 58 63 62 61 59 59 59 59 60 60 61
64 64 64 63 65 65 66 64 60 52 51 50 54 55 52 50 49 49 50 52 54 57 63 61 60 59 58 58 57 57 57 58 58
65 65 65 64 66 65 64 62 56 53 50 47 45 47 47 48 49 50 54 60 61 62 60 59 58 56 56 56 55 55 55 56 56
65 64 65 65 66 64 62 56 50 41 29 32 39 45 49 53 57 58 60 61 60 59 58 56 56 54 53 53 53 52 52 52 52
65 64 65 65 64 61 52 41 32 27 26 26 36 47 51 55 56 59 60 58 55 54 53 52 50 49 49 49 49 50 49 49 49
64 63 63 63 61 57 47 35 26 23 22 24 34 46 52 54 55 57 57 55 53 51 49 48 47 47 48 48 47 49 48 48 48
63 62 62 61 59 53 44 29 25 22 22 23 31 46 51 51 52 53 54 53 51 48 46 45 44 45 45 46 47 47 47 47 47
62 61 61 60 58 48 39 28 25 24 22 22 29 45 49 50 49 48 49 48 45 43 43 42 42 42 44 44 46 45 45 46 47
61 60 60 59 55 37 29 27 26 25 23 21 25 41 46 48 46 42 42 43 43 40 40 39 38 41 40 41 42 42 42 44 45
59 59 59 56 47 32 28 27 25 23 22 20 24 27 42 44 42 39 38 36 35 36 35 33 34 34 36 37 37 37 39 41 43
58 58 57 48 39 31 28 26 24 21 21 20 28 27 32 40 38 35 34 34 29 33 35 34 32 30 31 33 34 35 37 39 39
57 56 53 41 33 29 27 25 23 22 21 25 28 29 27 35 35 34 29 31 24 24 20 21 22 33 31 31 32 33 32 35 36
55 52 48 38 31 29 27 24 21 21 25 26 26 26 27 26 27 28 27 24 22 20 20 20 20 21 29 30 31 33 31 31 33
54 50 45 38 32 28 26 24 22 21 24 22 25 21 24 24 23 25 24 21 20 21 20 20 20 20 20 26 31 32 32 31 32
52 48 44 38 34 31 27 26 24 22 20 23 23 21 20 23 20 21 20 20 20 20 21 20 20 19 20 27 31 31 31 32 33
51 48 45 39 35 33 29 28 27 24 21 20 19 20 22 18 15 19 20 20 19 19 21 20 19 20 22 25 29 30 31 33 34
52 48 45 39 38 34 32 30 28 26 23 22 19 19 19 17 14 13 17 20 21 21 21 21 19 19 20 21 27 28 29 30 32

GFSFLT1_sfc_30mbdewp_033.txt.gz
Dewpoint
60 61 61 61 62 62 61 61 62 63 63 64 63 62 63 60 59 59 62 64 63 61 64 63 65 65 64 65 63 65 63 62 61
61 62 62 62 62 62 62 63 65 65 64 62 60 63 62 60 60 61 63 62 61 62 61 64 64 64 64 64 64 64 65 65 65
61 62 63 63 64 63 64 65 65 62 58 57 58 61 60 61 61 59 56 59 59 59 59 63 62 61 61 61 61 61 62 63 63
61 63 63 64 65 65 65 65 61 54 55 55 58 59 55 54 53 52 53 56 56 57 61 62 60 59 59 58 59 60 60 60 60
63 63 64 64 65 65 65 63 55 52 52 56 58 56 52 50 49 48 51 54 56 62 62 61 59 58 57 56 56 56 56 56 57
64 64 64 64 66 65 64 60 55 52 50 49 52 48 47 47 49 50 59 62 62 61 60 59 57 56 55 54 54 54 55 55 55
64 64 65 64 65 64 61 57 51 36 33 36 45 46 49 54 57 57 62 61 60 58 57 56 55 54 53 53 52 52 52 52 52
65 64 65 64 64 59 52 43 34 32 30 33 43 48 53 56 58 60 61 58 56 55 53 52 51 51 50 50 50 50 50 50 50
65 64 65 64 63 57 48 37 30 27 27 30 41 48 53 55 57 57 56 55 53 51 50 49 49 49 49 49 50 49 49 49 49
65 64 64 63 61 57 46 34 28 25 25 27 39 48 53 54 54 55 55 54 51 49 47 46 47 46 46 47 48 47 47 48 49
64 63 63 62 61 55 44 33 28 27 25 25 38 48 51 51 51 51 50 50 47 45 44 44 44 45 45 46 46 45 46 47 47
64 63 62 61 59 50 38 30 28 28 25 25 34 46 49 49 47 45 45 44 44 43 42 40 42 40 42 42 42 41 42 44 45
62 62 62 60 56 44 36 31 29 28 26 24 27 39 46 47 43 41 39 39 38 40 37 36 35 37 38 38 38 38 39 40 42
59 60 61 59 53 42 34 30 29 27 26 24 28 29 41 44 39 36 36 36 35 36 38 37 33 32 33 35 36 37 36 39 39
60 59 59 56 50 42 33 30 27 26 25 24 29 31 30 40 39 34 33 31 32 31 25 25 27 35 35 34 34 36 36 34 35
59 59 57 52 49 43 34 29 26 25 28 29 29 30 28 33 35 34 30 30 25 24 23 23 23 24 30 31 32 35 35 33 34
58 57 55 50 47 39 32 28 25 26 29 27 28 26 27 27 27 30 28 26 24 23 23 22 22 23 23 29 31 32 33 34 34
57 56 55 51 47 40 33 29 28 26 27 28 29 25 25 27 24 26 25 24 23 22 23 22 22 21 25 29 33 34 34 35 37
58 56 54 51 48 44 37 32 30 29 26 25 24 24 27 25 22 22 23 22 21 22 23 22 21 23 23 27 30 30 31 33 34
58 55 53 51 48 45 41 33 31 29 28 26 23 22 22 20 21 21 21 22 22 21 22 22 20 20 21 23 27 29 29 31 32

GFSFLT1_sfc_30mbdewp_036.txt.gz
Dewpoint
61 62 63 63 63 63 62 62 62 63 64 64 63 63 62 61 57 59 62 61 61 63 62 65 65 65 65 66 63 66 63 64 62
62 62 62 62 62 62 62 63 64 64 64 62 61 64 61 58 58 59 59 60 62 61 64 64 64 63 63 63 63 63 64 66 65
62 63 63 63 63 63 64 65 64 61 59 59 61 62 61 59 59 58 56 59 59 58 63 62 61 61 62 61 61 62 62 62 63
62 63 64 64 64 64 65 64 57 56 56 57 60 58 56 55 54 51 50 56 56 57 63 61 61 60 58 58 57 58 58 59 60
63 64 64 65 65 65 65 58 54 54 56 59 59 55 51 49 48 45 47 59 57 63 62 60 59 58 57 56 56 55 56 56 57
62 61 64 65 65 66 63 57 54 52 51 54 52 47 43 42 42 44 63 63 62 61 60 58 57 56 55 55 55 54 54 54 55
59 62 64 65 66 65 61 57 49 40 39 39 42 39 41 43 44 50 62 60 60 59 57 56 55 54 53 53 53 52 52 52 52
62 60 62 61 64 61 58 50 45 41 38 36 36 39 43 45 48 59 61 59 57 55 54 53 52 52 51 52 51 50 50 51 51
61 61 60 59 59 58 55 48 41 36 33 33 36 39 42 45 50 57 58 56 54 51 51 51 51 50 50 50 49 49 49 50 50
61 61 61 61 58 57 54 47 39 34 31 31 35 39 42 44 49 53 56 55 52 50 49 49 48 48 48 49 48 48 49 49 50
61 61 62 61 60 57 54 47 40 35 32 30 34 39 43 44 47 49 52 52 50 47 46 46 46 46 46 47 45 45 46 47 48
60 61 62 62 60 57 53 45 38 35 31 30 33 39 42 43 44 45 46 46 46 46 44 43 45 42 43 43 42 41 42 44 45
59 60 62 61 60 57 51 45 40 36 33 30 30 36 41 41 41 42 42 41 39 43 39 40 38 39 39 39 39 38 40 40 42
58 59 59 60 59 56 50 45 41 37 33 30 28 32 37 40 39 38 38 38 36 35 38 37 35 35 36 36 37 37 37 37 39
59 57 58 59 59 55 50 45 39 37 34 24 27 29 32 38 38 34 34 33 34 34 33 31 32 36 36 35 35 36 37 37 36
60 58 57 58 58 56 50 46 38 34 32 30 30 30 29 33 36 34 32 31 30 31 26 25 24 27 32 31 33 34 35 37 35
61 59 58 57 57 56 52 44 38 35 32 33 32 29 28 28 33 34 32 30 28 27 25 24 24 25 24 30 31 31 33 35 36
61 60 59 57 56 55 52 45 41 36 32 33 34 31 30 29 28 31 32 29 28 26 25 24 23 23 23 28 33 35 34 35 37
62 60 60 58 55 54 52 47 43 41 35 32 31 30 32 29 27 27 28 28 27 26 25 23 23 23 25 27 30 31 31 32 35
62 61 60 58 55 54 52 48 44 42 40 35 29 27 26 26 29 28 26 26 25 25 25 23 23 23 23 24 27 29 30 32 33

GFSFLT1_sfc_30mbdewp_039.txt.gz
Dewpoint
62 64 64 64 64 63 62 62 63 63 64 63 63 63 61 61 57 59 61 61 63 62 65 65 66 65 66 65 65 66 66 66 62
62 63 63 63 62 62 62 64 64 64 63 62 63 63 61 59 57 57 57 60 61 62 65 64 63 63 63 63 63 64 64 65 65
62 62 62 62 62 63 64 65 63 60 60 60 63 62 61 58 57 56 56 59 58 59 62 61 61 61 60 60 60 61 61 62 63
62 63 63 63 63 64 65 62 58 58 57 60 60 58 56 54 53 48 51 56 56 61 62 62 60 59 58 58 58 58 58 60 60
63 64 64 65 65 65 63 57 56 56 59 60 58 53 51 48 47 43 51 60 58 63 61 60 59 58 57 56 56 56 56 57 57
62 61 64 65 65 66 61 56 55 54 56 56 51 49 43 41 41 49 64 63 63 61 59 58 57 57 56 55 55 54 54 54 55
57 61 64 66 67 65 61 56 53 48 43 42 41 41 40 42 43 57 62 61 61 59 58 56 55 54 54 53 52 52 52 53 52
58 60 59 62 65 63 60 57 49 46 42 41 38 38 41 43 45 60 61 59 58 56 55 54 53 52 53 52 51 51 52 51 52
58 57 58 56 61 59 58 53 47 43 40 37 37 38 41 44 51 59 59 58 56 53 52 52 52 51 52 50 50 50 51 51 52
60 58 59 57 56 56 55 51 45 41 37 35 37 38 40 42 48 56 57 55 53 51 50 51 50 49 50 49 48 49 50 50 50
61 60 61 61 58 56 54 51 45 41 37 35 37 38 40 42 45 53 54 54 52 49 48 48 48 48 49 47 46 46 47 48 48
58 58 61 62 61 57 55 51 45 41 38 36 36 38 40 41 43 47 51 49 49 48 47 46 47 46 45 45 43 42 43 44 45
57 58 61 62 62 59 56 52 44 41 39 37 35 37 39 40 41 42 44 45 44 46 44 45 42 42 42 40 40 40 40 41 41
57 57 59 62 61 59 57 52 46 44 40 38 35 35 38 39 39 40 41 41 40 42 40 40 39 39 39 38 38 38 38 37 39
59 58 57 58 59 58 57 52 48 45 42 37 33 33 35 38 39 37 37 37 38 37 38 38 35 36 37 36 36 36 38 38 37
61 59 57 57 57 58 56 53 48 45 43 34 32 33 32 33 38 37 35 34 35 35 36 32 32 35 36 33 33 34 34 37 38
62 61 59 57 57 57 57 53 48 44 40 37 39 35 32 30 33 37 34 33 33 33 31 29 28 28 29 33 31 31 33 35 36
62 62 61 59 58 58 57 54 49 45 40 41 41 40 38 32 31 34 36 33 32 30 30 28 27 27 28 32 33 36 35 35 36
63 62 62 61 59 58 57 55 50 47 42 39 38 37 37 33 30 31 33 34 31 30 30 27 27 26 27 30 34 33 31 32 34
62 62 61 61 61 59 57 55 50 49 47 42 37 36 32 33 33 29 29 31 31 30 29 28 27 26 26 28 31 31 30 32 33

GFSFLT1_sfc_30mbdewp_042.txt.gz
Dewpoint
65 66 66 65 64 63 62 63 63 65 64 63 64 63 62 61 59 62 64 63 62 65 66 65 65 65 65 65 65 66 66 63 64
64 64 64 64 63 62 63 64 64 64 63 63 63 62 61 60 58 60 60 60 60 64 64 64 64 63 63 63 63 64 65 65 65
63 63 63 63 62 63 65 64 62 61 61 62 62 61 60 57 56 57 58 60 57 62 62 61 60 60 60 60 60 61 62 62 63
63 63 63 63 64 65 64 61 59 58 59 61 59 57 55 53 50 54 56 57 57 63 62 61 60 59 59 58 57 58 60 60 60
64 65 65 65 65 66 62 58 58 59 60 59 56 52 51 48 47 54 57 57 62 63 61 60 59 58 57 56 56 56 57 57 57
64 63 65 66 66 66 59 57 56 58 57 55 52 49 48 42 49 63 64 64 63 61 60 58 58 57 56 55 55 54 55 55 55
61 63 65 65 66 64 60 57 54 50 45 43 41 40 42 44 53 63 64 62 61 60 58 57 55 55 54 53 53 53 53 53 53
61 62 63 65 65 63 60 57 49 46 46 41 41 40 42 45 57 63 62 60 59 57 56 55 54 54 53 52 52 52 52 53 53
60 61 59 62 64 63 61 58 53 49 42 40 38 39 42 44 61 61 61 59 57 55 54 53 53 53 52 51 51 51 51 52 51
60 59 59 58 62 61 60 56 50 43 41 37 38 38 41 41 58 59 58 57 55 53 53 52 52 52 51 50 50 51 50 51 50
60 59 59 58 59 58 57 55 48 43 39 36 37 38 40 41 56 56 56 55 54 52 51 51 50 51 50 48 48 48 48 49 49
61 60 61 60 59 60 56 54 49 43 38 37 36 38 40 42 49 54 53 53 52 51 49 49 49 49 49 47 45 44 45 46 45
59 59 61 62 61 60 59 54 48 44 39 38 37 38 40 41 42 50 51 49 48 49 49 48 48 46 46 44 42 42 41 42 42
59 58 60 62 62 61 60 55 48 44 41 38 37 37 39 41 41 42 47 48 46 45 45 48 45 44 42 41 41 40 38 39 39
59 58 58 62 61 61 60 56 49 46 44 39 36 35 38 40 40 40 41 42 44 43 41 40 39 42 41 40 40 39 39 39 38
60 59 58 59 61 61 59 56 52 48 45 38 34 34 32 33 40 39 38 38 38 40 39 38 36 38 39 39 37 35 36 37 39
62 61 60 58 58 59 58 56 52 48 45 36 34 33 34 32 32 39 37 36 37 36 38 36 34 36 38 35 33 33 33 35 37
64 62 62 61 58 58 58 57 53 48 44 39 39 40 38 32 32 32 38 35 34 34 34 31 29 32 32 35 34 32 37 37 38
64 64 63 62 61 59 58 58 55 49 44 41 42 43 39 34 31 32 35 36 33 32 32 30 28 28 32 32 35 37 34 33 34
63 63 63 62 62 61 60 59 56 50 47 43 42 42 37 35 35 30 30 34 34 32 31 30 28 27 29 33 38 36 32 32 34

GFSFLT1_sfc_30mbdewp_045.txt.gz
Dewpoint
67 67 66 66 65 63 63 63 65 64 63 64 63 62 62 61 62 63 62 61 65 66 65 65 65 65 65 65 66 66 65 65 66
65 65 65 64 63 63 63 64 65 63 63 63 63 62 61 59 60 60 60 60 64 64 64 63 63 63 62 63 64 64 65 65 65
64 64 64 63 63 64 64 64 62 62 62 62 62 60 57 57 57 58 59 58 62 62 61 60 60 60 60 61 61 62 63 63 63
64 64 63 63 64 65 64 61 60 60 61 60 58 56 54 50 55 55 57 58 62 62 61 60 60 59 58 58 59 59 60 60 60
63 64 64 64 65 65 61 60 59 60 60 58 55 52 50 47 51 54 57 59 63 62 61 60 59 58 57 57 56 57 57 58 58
65 64 65 66 66 64 60 59 59 59 58 55 51 48 46 47 61 61 63 63 63 61 59 59 58 57 56 55 55 55 55 55 55
63 63 65 66 67 64 60 58 56 53 49 46 45 41 42 50 63 64 65 63 62 60 59 58 56 55 54 54 54 53 53 54 54
61 63 64 65 66 63 61 58 53 48 45 42 38 41 42 52 62 64 63 61 60 59 57 55 55 54 53 53 53 53 54 53 52
61 62 62 64 65 63 60 58 51 47 47 44 41 39 41 55 61 62 62 61 59 57 55 54 54 54 52 52 52 53 53 52 52
61 61 60 62 64 63 61 59 56 52 44 40 38 38 41 59 60 61 61 60 58 56 55 54 53 53 52 51 52 51 52 51 51
60 60 59 58 62 62 62 60 56 49 42 39 37 38 40 53 59 59 59 58 57 55 54 53 52 53 51 51 51 50 51 50 50
60 59 60 58 59 60 58 58 52 44 42 37 36 38 39 49 56 56 56 56 55 55 53 52 52 52 51 49 48 48 48 47 47
61 60 60 60 59 59 59 56 52 46 41 37 36 37 39 42 54 54 54 53 53 54 53 51 51 51 51 48 46 46 45 45 43
59 60 60 61 61 60 59 58 52 47 42 38 38 37 38 41 44 53 52 50 49 49 52 52 52 49 48 47 44 44 42 43 42
58 58 59 62 61 61 60 59 53 47 44 40 38 37 38 40 41 44 51 49 47 47 46 49 48 48 46 45 44 44 41 40 39
59 59 58 61 61 61 61 59 56 48 45 41 37 36 35 36 40 41 42 46 46 45 43 43 41 45 46 43 42 42 41 40 41
64 61 59 59 61 61 60 59 54 51 45 41 35 33 33 33 33 38 40 40 41 43 41 40 38 39 43 42 42 39 38 38 40
64 64 62 60 59 60 60 59 56 53 49 43 40 37 36 35 33 32 39 38 38 39 40 38 36 36 39 42 40 37 35 37 39
63 63 63 62 61 59 58 59 58 55 50 45 41 44 41 37 37 34 34 38 36 36 38 37 34 34 35 37 37 37 37 38 39
63 63 63 62 62 61 60 59 57 54 53 48 44 44 41 37 36 37 35 38 37 35 34 34 31 31 33 35 37 38 38 35 36

GFSFLT1_sfc_30mbdewp_048.txt.gz
Dewpoint
67 67 66 65 64 63 63 64 64 64 64 63 63 63 62 63 63 62 63 65 66 65 65 65 65 65 64 66 65 65 65 66 66
66 66 66 65 63 63 63 65 64 63 63 63 63 61 59 61 60 59 61 64 65 64 63 64 63 63 63 63 64 65 65 65 65
66 66 65 64 63 64 64 64 63 62 62 62 62 58 59 59 58 59 58 63 62 60 61 61 61 61 61 61 62 64 63 64 64
65 65 64 64 64 64 64 62 62 61 61 61 59 55 54 56 57 58 58 60 62 62 61 60 60 59 59 59 59 60 61 61 61
64 65 64 64 65 65 63 61 60 60 60 59 55 52 51 53 53 55 57 60 63 62 61 59 59 58 57 57 57 57 57 58 58
65 64 64 65 66 64 61 60 60 60 59 57 53 48 46 49 54 55 59 64 63 61 60 59 58 57 56 56 56 56 56 56 56
64 64 65 66 66 64 61 59 59 58 53 50 49 43 42 57 61 61 64 65 63 60 60 58 56 55 55 55 55 54 55 55 55
63 63 64 66 66 64 61 59 55 50 45 42 39 39 41 51 62 64 65 63 62 60 59 56 56 55 54 54 54 54 54 53 53
61 62 63 64 65 63 61 58 54 47 46 46 42 41 42 53 62 64 63 62 61 59 56 55 56 54 53 53 53 54 52 53 53
61 61 62 62 64 63 61 60 58 53 49 45 42 38 40 53 61 62 62 62 60 58 56 55 55 54 53 53 53 53 52 52 52
60 60 60 61 63 63 62 61 59 56 51 43 39 38 39 54 60 60 61 61 60 58 56 55 55 54 53 52 52 53 52 51 51
60 60 60 59 60 62 62 61 60 56 50 42 38 37 38 45 58 59 59 60 59 58 56 55 54 54 53 52 52 51 51 51 50
60 59 59 60 58 59 60 59 58 55 48 42 38 36 38 40 55 57 57 57 56 57 57 56 54 54 53 51 50 50 49 48 47
60 60 60 60 59 58 59 58 55 53 48 42 39 37 37 39 47 55 55 54 54 54 55 56 55 54 53 51 50 48 47 46 44
59 60 60 60 60 60 59 58 56 52 50 44 39 38 38 39 41 49 54 52 51 51 51 53 53 53 52 51 49 47 46 45 44
60 59 59 60 61 60 60 59 58 54 47 43 39 38 37 37 40 42 49 51 50 49 48 49 50 51 51 50 48 47 45 43 42
64 61 59 59 60 60 60 60 57 56 49 46 39 41 39 36 35 38 41 45 49 47 46 45 45 46 48 48 48 46 45 44 43
63 63 63 60 60 60 60 60 59 57 51 48 47 39 43 38 35 34 37 40 42 46 47 44 42 42 44 46 47 47 43 41 41
63 63 63 62 60 59 60 60 60 58 55 50 47 46 41 39 41 35 34 38 39 40 44 43 42 41 40 43 44 44 41 39 39
63 63 63 62 62 61 60 59 59 58 58 51 48 47 45 40 39 41 39 40 39 40 39 41 42 38 37 39 41 43 40 37 39

GFSFLT1_sfc_30mbdewp_051.txt.gz
Dewpoint
69 67 66 64 63 62 64 64 64 63 63 63 63 63 64 62 62 63 65 66 66 66 66 65 65 64 66 66 65 66 66 66 63
67 67 65 65 63 63 64 64 63 64 63 63 63 61 64 61 60 61 64 65 64 64 64 64 63 63 64 63 65 65 65 66 65
66 66 66 65 63 63 64 64 63 63 63 63 60 62 61 59 58 59 62 64 63 61 61 61 61 61 61 62 62 63 63 64 65
66 66 65 64 64 64 64 63 62 62 62 61 57 60 59 57 58 57 58 62 61 61 59 59 60 60 59 60 59 59 61 61 61
65 65 65 64 64 65 64 62 61 61 61 59 55 54 53 55 56 56 56 60 63 62 60 59 59 58 57 57 57 56 58 58 59
65 64 64 65 66 65 62 61 60 60 60 58 54 48 46 50 52 53 57 61 63 62 59 59 58 57 56 56 56 56 57 57 57
64 64 64 65 66 65 62 61 60 58 52 49 48 43 42 53 58 57 58 65 64 61 59 59 57 56 55 55 55 55 55 56 56
63 63 64 65 66 65 62 60 57 52 45 42 41 39 40 45 60 62 63 65 62 61 60 58 56 55 55 55 54 55 54 54 54
62 61 62 64 65 64 62 59 56 50 46 45 45 41 41 46 59 63 65 64 62 61 60 57 56 55 54 54 54 54 53 53 54
60 60 61 62 64 64 62 60 58 55 49 46 46 43 39 43 58 62 64 63 62 61 58 56 56 55 54 54 54 54 53 53 53
59 60 60 61 62 63 62 61 60 59 56 51 46 41 39 41 54 60 61 62 62 61 58 57 56 56 54 53 53 54 53 52 53
60 60 60 60 61 62 62 61 61 59 57 52 47 40 38 39 53 59 60 61 61 61 58 58 56 56 54 53 53 53 53 52 52
60 60 60 60 59 60 61 60 60 59 58 55 50 41 38 38 44 56 58 59 59 59 60 59 57 56 55 53 53 52 52 51 51
61 60 60 60 59 58 59 59 59 58 56 53 49 43 38 37 40 50 56 57 57 57 57 59 58 57 55 54 53 52 51 50 49
60 60 60 60 59 59 58 58 57 56 55 53 49 43 40 38 39 43 53 55 56 55 54 55 57 56 56 54 53 52 50 49 47
59 59 59 60 60 60 59 58 58 57 51 48 46 43 40 39 38 40 45 52 53 53 52 52 53 54 56 55 53 52 50 49 47
64 61 59 59 59 60 60 60 58 57 52 52 44 48 46 39 38 38 40 44 52 51 50 49 50 51 53 53 54 52 49 49 46
63 64 63 61 59 59 59 60 59 58 54 51 53 46 46 43 40 36 37 40 44 49 49 48 48 48 49 51 52 52 51 48 47
63 63 63 62 61 60 60 60 59 58 57 51 50 49 43 47 46 40 36 35 39 41 46 48 47 46 46 47 49 49 49 48 46
55 60 62 62 62 61 60 59 59 59 58 55 51 49 47 44 45 49 47 42 41 41 40 44 45 45 44 44 46 48 48 46 43

GFSFLT1_sfc_30mbdewp_054.txt.gz
Dewpoint
68 67 65 64 62 63 63 63 63 63 64 64 63 64 64 62 62 64 66 66 66 66 66 65 65 64 66 66 66 66 66 66 60
68 67 65 64 63 64 64 64 63 64 64 64 61 65 63 60 59 62 64 65 65 64 64 64 63 62 63 63 65 65 65 65 63
68 66 66 65 63 63 64 63 63 63 63 62 60 64 61 59 58 60 62 64 62 61 61 61 61 61 61 61 62 62 63 65 65
67 66 66 65 64 64 64 63 63 62 62 61 59 62 59 57 57 57 59 62 60 60 58 59 60 60 59 59 59 59 60 62 62
66 66 65 65 64 64 64 62 61 61 61 59 55 54 55 55 56 56 56 60 63 60 59 58 59 58 57 57 57 57 57 59 59
65 65 65 65 65 65 63 61 60 60 59 58 53 48 46 51 52 52 55 60 64 62 58 58 58 57 56 56 56 56 56 57 57
64 64 64 65 66 65 62 61 60 57 52 50 49 44 42 46 54 56 56 60 65 62 59 59 57 56 56 55 55 55 56 56 56
63 62 64 64 65 65 63 61 57 53 47 43 42 39 40 42 54 59 61 62 65 62 61 59 57 55 55 55 55 55 55 55 55
62 61 62 63 64 64 62 60 58 53 47 45 45 43 40 42 49 59 63 65 64 62 60 59 57 56 55 55 54 54 53 53 54
60 60 60 62 63 64 63 61 59 57 52 47 45 46 43 40 44 57 62 65 64 62 61 58 57 56 55 54 54 54 53 53 54
59 59 59 60 62 62 63 61 60 59 58 57 53 47 42 39 43 54 60 63 63 63 61 59 58 57 55 54 54 54 53 53 53
60 59 59 60 60 61 61 61 61 60 59 57 55 49 44 39 40 51 58 60 62 62 61 59 59 57 56 55 54 54 54 53 53
61 60 60 60 60 60 60 60 60 59 59 58 57 53 47 41 39 47 56 58 60 61 62 61 59 58 56 55 54 54 53 53 52
62 61 61 60 60 59 59 59 59 58 58 57 57 54 51 45 39 40 49 56 58 59 59 60 60 59 58 56 55 54 53 53 52
62 62 61 60 60 59 58 58 58 58 57 56 55 52 50 45 41 39 44 50 55 57 57 57 58 59 59 56 55 54 53 52 51
60 60 60 60 60 59 59 58 58 57 54 53 53 50 47 45 43 41 41 46 52 55 56 56 55 56 58 58 55 54 53 53 51
63 61 59 59 59 59 59 59 58 57 54 55 49 53 51 45 42 40 40 40 48 51 53 53 53 53 54 56 57 55 53 53 52
63 64 63 62 60 59 59 59 59 58 55 53 56 50 49 46 46 41 38 38 41 47 50 51 51 51 51 52 55 56 56 52 51
59 62 62 62 62 60 60 59 59 58 58 53 52 52 47 51 50 45 40 36 37 40 45 48 49 49 49 50 51 53 55 52 50
52 54 56 59 60 61 60 60 59 59 58 56 54 52 49 47 47 50 50 45 43 41 41 43 46 47 47 47 48 51 53 53 53

GFSFLT1_sfc_30mbdewp_057.txt.gz
Dewpoint
68 66 64 63 64 63 63 63 64 64 64 64 64 65 64 61 63 65 65 65 66 65 65 65 64 65 65 66 66 66 66 61 60
68 66 65 63 64 64 63 64 64 64 64 62 63 64 61 59 62 64 65 64 63 61 62 63 62 62 62 63 63 64 65 64 64
66 66 65 64 63 64 64 63 63 63 63 60 63 64 60 58 58 62 63 64 60 60 60 61 61 61 61 60 61 61 62 64 65
67 67 65 65 64 64 64 63 63 63 62 59 64 62 59 57 56 56 59 62 61 59 58 60 60 59 58 58 59 59 59 60 61
67 65 66 65 64 64 64 62 61 62 61 58 56 56 56 56 56 56 54 60 63 61 59 59 59 57 57 57 57 56 56 57 59
65 65 65 65 65 65 63 62 61 60 59 58 54 48 48 52 53 52 53 58 64 61 59 59 58 56 56 56 56 57 56 56 57
64 64 64 65 66 65 63 61 61 56 53 52 51 48 44 45 51 53 57 58 62 62 60 60 58 56 56 55 55 56 56 57 56
64 63 63 64 65 65 63 61 58 54 49 46 44 43 42 42 46 55 60 62 64 62 61 60 58 56 55 55 55 55 55 55 55
62 61 62 63 64 64 64 62 60 57 50 46 45 45 43 42 45 52 58 63 65 63 60 60 58 56 55 55 54 55 53 54 54
60 60 61 62 63 63 63 62 61 59 57 53 48 46 46 44 42 47 55 62 66 64 62 61 58 57 56 55 54 55 53 53 54
60 59 59 59 61 62 63 63 62 60 60 59 58 56 50 45 42 43 50 59 64 64 62 61 59 58 57 55 55 55 54 53 53
61 60 59 59 60 60 61 62 62 61 60 59 58 57 54 48 44 43 48 53 60 63 63 61 60 59 57 57 55 55 54 53 53
62 61 60 60 60 60 60 60 60 60 60 59 58 58 57 55 50 44 45 50 55 59 63 63 61 60 59 57 57 55 55 54 53
63 62 62 61 61 60 60 60 60 59 59 59 58 58 58 57 54 51 45 46 52 55 59 62 62 62 60 58 56 56 55 54 54
63 63 62 62 61 61 60 60 59 59 58 58 57 58 57 56 54 53 49 46 47 52 56 58 59 60 61 59 57 56 55 55 54
61 62 62 62 61 60 60 60 59 58 58 57 57 56 55 54 54 52 49 49 48 49 51 54 57 58 59 60 58 57 55 55 55
63 62 61 60 60 60 60 60 58 58 57 58 54 55 53 51 49 48 46 45 44 46 48 50 53 55 57 57 59 58 56 54 55
64 64 64 63 61 61 60 60 59 59 57 57 57 52 50 49 49 46 43 42 42 44 47 48 49 51 53 55 55 57 58 55 53
53 60 62 63 62 61 61 60 60 59 58 55 54 55 52 53 51 50 45 39 40 40 43 45 48 50 51 51 52 53 55 56 54
53 54 55 57 58 58 59 59 59 59 59 57 55 55 52 50 50 50 52 49 48 46 43 43 44 47 47 48 49 51 52 53 54

GFSFLT1_sfc_30mbdewp_060.txt.gz
Dewpoint
66 64 63 64 63 63 64 64 65 65 64 64 65 64 61 59 60 61 63 64 64 64 64 64 64 63 64 64 65 66 63 60 61
66 65 64 64 64 63 64 65 64 64 63 62 65 63 59 55 56 58 59 61 62 62 61 62 62 62 62 62 62 64 65 66 66
66 66 65 64 64 64 63 63 64 64 62 63 65 62 59 55 54 55 56 62 61 60 61 61 61 60 59 60 61 61 61 63 65
66 66 65 64 64 65 64 63 63 63 61 63 64 61 58 54 52 49 52 63 61 60 59 60 59 58 57 58 58 59 58 59 61
65 65 66 65 65 65 63 62 62 62 61 58 59 57 55 52 51 49 50 59 63 60 59 59 58 56 56 57 57 57 57 57 57
63 64 65 65 65 65 63 61 61 60 59 58 53 49 50 48 47 46 51 57 61 62 60 60 58 56 56 56 56 57 57 56 56
59 63 64 65 66 65 63 61 61 56 51 52 53 51 49 45 46 46 55 60 60 65 60 60 58 55 56 55 56 56 57 56 56
57 58 59 60 64 61 61 60 56 52 48 47 45 45 45 43 42 46 55 61 62 63 62 60 58 56 55 55 55 56 55 55 55
57 54 56 58 57 58 60 59 58 58 54 47 45 45 45 43 43 44 51 59 64 64 63 61 59 57 56 56 54 55 54 54 54
60 56 54 54 56 57 57 58 58 57 56 55 53 52 50 48 46 44 47 53 62 66 64 61 61 59 57 56 55 55 53 54 54
61 59 57 54 55 56 58 59 60 59 59 57 56 56 56 53 49 47 47 51 57 64 65 63 62 59 58 57 56 55 55 54 54
61 60 59 59 58 58 59 59 60 60 60 59 58 58 57 57 54 51 50 49 53 57 64 64 61 59 58 58 57 56 55 54 53
62 60 60 60 60 60 60 60 59 59 59 59 58 58 59 58 58 56 54 52 51 53 58 63 63 61 60 59 58 58 56 55 54
62 61 61 61 61 61 61 60 60 60 59 59 59 59 59 59 58 58 57 55 52 52 53 59 62 63 62 60 59 58 58 56 55
62 62 62 62 62 61 61 61 61 60 60 59 58 59 59 59 58 57 57 57 54 52 52 52 54 59 62 61 59 58 57 58 56
62 62 62 63 62 61 61 61 60 60 60 59 58 58 58 57 57 56 55 54 54 53 52 52 51 52 59 61 61 59 58 57 58
63 63 63 63 63 62 62 61 61 60 61 59 58 56 52 52 54 54 53 52 51 49 50 49 49 50 51 53 60 60 59 57 56
64 64 64 64 64 63 63 63 62 60 61 60 59 55 49 51 52 52 50 48 48 47 47 48 49 49 49 50 54 57 59 59 57
48 56 61 63 63 62 62 62 62 61 59 59 59 59 56 53 51 53 51 47 46 48 47 46 47 47 49 50 52 53 54 55 57
52 51 53 53 55 57 58 58 58 60 59 59 57 57 57 55 54 51 53 53 50 50 49 48 47 47 47 47 48 49 50 51 52

GFSFLT1_sfc_30mbdewp_063.txt.gz
Dewpoint
64 63 64 64 63 64 64 65 65 64 64 64 63 61 61 61 58 59 63 62 63 62 63 63 63 63 63 64 64 66 65 65 65
65 64 65 64 64 64 65 65 65 64 62 65 63 61 58 53 55 56 59 61 61 61 62 62 60 60 60 61 62 63 65 66 65
66 65 64 65 64 63 64 64 64 63 62 65 63 61 59 52 52 53 57 62 61 60 61 60 58 57 58 58 59 61 61 62 63
66 66 64 64 65 64 63 63 63 63 61 65 63 61 58 54 51 47 56 64 61 60 60 60 58 56 57 58 58 57 58 58 60
66 65 65 64 65 64 63 62 62 62 60 58 59 57 55 51 49 48 50 59 63 60 60 60 58 56 57 57 58 57 57 57 57
62 65 65 65 65 64 62 62 62 60 59 57 54 51 50 47 46 46 51 56 60 63 61 60 58 55 56 56 56 57 57 57 57
60 63 64 65 66 65 63 61 61 56 52 55 54 53 49 46 45 48 54 59 60 63 61 60 58 55 56 55 56 57 57 57 57
54 58 60 61 64 61 61 61 58 52 49 47 46 45 45 44 43 49 51 58 62 65 62 61 59 56 56 55 55 56 55 55 55
54 53 54 57 58 56 58 57 56 56 55 50 47 46 46 46 44 46 48 53 61 65 63 62 60 58 56 56 55 55 54 54 55
58 54 51 52 53 54 55 56 55 55 55 54 53 51 51 49 48 47 48 47 54 63 65 63 62 60 58 57 56 55 54 54 54
59 58 56 52 52 53 54 57 58 58 58 57 56 55 55 55 54 51 50 48 51 58 64 65 62 62 60 59 57 56 56 54 54
59 58 58 58 56 55 56 57 58 59 59 58 58 58 57 57 56 55 54 53 51 51 58 62 62 61 61 60 59 58 57 56 54
60 59 59 59 59 59 59 59 58 58 58 58 57 57 58 58 58 58 58 56 55 55 54 58 61 61 60 60 59 59 58 57 55
61 61 61 61 61 60 60 60 59 59 58 58 58 59 59 59 59 58 58 58 57 55 56 56 58 62 63 60 59 60 60 58 56
61 61 61 61 61 61 60 60 60 60 60 59 59 59 59 59 59 58 56 56 58 57 55 56 56 56 60 61 60 59 59 60 58
62 62 62 61 61 61 60 60 59 60 61 60 59 59 59 59 58 57 55 55 55 55 55 54 54 54 57 60 61 60 59 59 59
62 62 62 62 62 62 61 60 60 60 61 60 59 56 55 53 55 54 54 54 53 52 51 51 51 51 52 54 59 60 60 59 58
64 64 64 65 65 64 64 63 63 61 61 61 59 55 51 52 53 53 53 52 51 50 49 49 50 50 51 51 52 55 57 58 59
53 57 61 63 63 63 63 63 63 62 60 61 60 60 58 54 51 52 53 52 49 50 50 49 48 48 49 49 50 51 52 52 54
50 50 51 52 53 55 56 57 57 58 58 58 58 58 58 57 55 52 52 54 53 52 51 50 48 48 48 48 48 48 49 50 51

GFSFLT1_sfc_30mbdewp_066.txt.gz
Dewpoint
64 64 64 64 64 65 65 65 64 65 64 63 62 61 59 57 61 63 63 62 62 63 63 61 61 61 62 64 64 65 66 66 66
64 65 64 64 64 65 65 65 64 63 65 63 62 61 60 56 56 59 61 61 60 61 60 58 57 58 59 60 62 63 63 64 65
64 65 65 64 64 64 64 64 64 62 65 65 63 60 59 55 51 60 62 62 61 61 61 59 57 56 57 58 58 59 60 62 62
66 64 64 65 64 64 63 63 63 62 63 64 62 60 58 55 51 60 63 64 61 61 61 60 57 56 57 58 58 58 58 59 60
66 66 65 65 65 64 63 63 63 62 60 59 58 56 54 54 50 51 55 61 63 61 61 60 58 57 56 57 58 58 58 58 58
64 65 65 65 65 64 62 62 61 59 59 57 55 53 52 47 47 50 52 55 60 63 61 60 58 56 56 56 57 58 57 57 58
64 65 65 66 65 64 62 62 60 57 56 56 54 53 52 47 45 53 53 57 60 63 63 61 58 56 56 55 56 57 56 56 57
62 63 63 64 65 64 63 61 59 57 51 51 49 48 45 45 45 52 51 54 60 63 64 62 59 57 56 55 55 55 54 55 55
54 60 60 61 62 62 61 60 59 57 55 52 48 47 46 47 47 50 49 52 57 64 64 63 61 58 57 56 55 55 54 54 55
59 54 54 56 58 56 57 57 56 56 55 55 54 52 51 51 50 49 49 50 51 58 65 64 63 61 59 57 56 55 55 54 54
60 58 55 53 53 54 55 55 58 58 58 57 57 55 55 56 55 53 51 49 50 53 58 65 64 63 61 59 57 56 56 55 54
60 59 58 57 55 54 55 57 58 59 59 59 59 58 58 58 57 56 54 53 52 52 55 57 61 61 62 61 61 59 58 57 55
60 59 59 60 59 59 58 58 59 59 59 59 59 58 58 58 58 58 58 56 55 54 55 56 58 60 60 60 60 61 60 58 57
61 61 61 61 61 61 60 60 60 59 59 58 58 58 59 59 59 59 59 59 58 57 56 56 57 60 61 60 60 60 61 60 59
61 61 61 61 61 60 60 60 60 60 60 60 59 60 60 60 60 60 59 57 56 58 56 57 57 57 58 59 59 59 59 60 60
61 62 62 60 61 60 60 60 59 59 60 60 60 60 60 60 59 59 57 56 56 55 55 55 55 55 57 59 60 59 59 59 59
63 62 62 62 62 62 62 62 61 60 61 59 59 55 55 56 56 58 55 54 52 53 52 52 51 51 52 55 58 60 60 59 60
64 64 64 64 65 64 64 63 62 61 61 61 58 55 52 54 53 53 53 52 52 50 49 49 49 50 50 50 51 53 53 54 55
53 55 60 63 63 63 62 63 62 62 60 61 61 60 59 54 51 52 53 53 50 51 49 49 48 48 49 50 49 49 50 52 53
50 50 51 52 53 54 56 56 58 58 57 56 55 57 56 56 55 51 51 54 53 51 52 50 48 48 46 45 47 49 50 52 53

GFSFLT1_sfc_30mbdewp_069.txt.gz
Dewpoint
63 64 65 65 65 65 65 64 65 64 63 62 62 62 60 62 61 61 62 62 62 60 59 58 59 60 62 64 64 64 65 65 65
64 64 64 65 65 65 65 64 64 65 64 63 62 61 58 58 60 61 61 60 61 61 59 57 57 57 58 61 62 62 62 64 64
65 64 65 65 65 65 64 64 63 65 65 63 61 60 59 52 60 62 62 62 61 62 61 58 57 57 58 58 58 60 61 61 61
64 65 64 64 64 64 64 64 63 62 64 63 60 58 57 54 60 62 63 63 62 62 62 59 58 57 57 58 59 59 58 59 60
66 65 66 65 64 64 63 63 62 61 59 58 56 54 53 53 53 56 61 64 62 62 62 60 57 57 57 58 58 58 58 59 59
65 65 65 66 65 63 62 62 61 59 58 56 54 54 53 50 50 50 54 58 61 63 62 61 58 57 56 57 58 58 58 58 58
65 65 65 65 65 63 62 61 59 58 56 56 56 53 52 47 49 51 54 56 59 63 63 61 58 57 56 56 57 56 56 56 57
64 64 65 65 65 63 62 61 60 56 55 55 54 51 46 45 45 52 54 55 57 62 65 62 59 57 57 56 56 55 54 55 55
62 62 62 62 63 62 61 60 59 58 55 51 49 47 46 46 47 49 53 52 54 60 64 63 61 59 57 57 56 55 54 55 55
57 58 60 60 62 61 61 60 59 58 57 56 54 52 51 50 50 49 51 51 53 55 62 64 64 62 59 58 57 56 55 54 54
60 57 54 55 57 57 56 56 56 57 58 57 57 56 54 54 55 54 51 51 51 53 55 60 63 63 62 60 58 58 57 56 55
60 59 57 55 53 53 54 55 58 58 59 59 59 59 58 57 57 56 54 53 52 53 55 57 59 61 62 62 62 60 58 58 57
60 59 59 59 58 55 56 57 57 58 59 59 59 59 59 59 58 58 58 56 54 54 55 57 58 59 60 61 61 61 61 59 58
60 60 59 60 60 60 59 60 60 59 59 59 59 59 59 59 60 59 59 59 59 56 56 56 56 58 59 59 59 60 60 61 60
61 61 62 61 61 60 60 60 60 60 60 60 59 59 60 60 60 60 60 59 57 58 56 57 57 57 57 59 59 59 59 59 60
61 61 61 61 59 59 60 60 60 59 60 59 59 59 60 60 60 60 60 58 56 56 55 55 55 55 56 59 60 59 59 59 59
62 62 62 62 61 61 61 61 60 60 61 57 58 55 55 56 57 56 57 54 52 53 52 51 51 51 54 56 56 57 58 58 58
63 64 64 64 64 63 63 63 62 60 61 60 58 54 52 54 54 53 53 52 51 49 49 49 49 49 50 51 50 51 52 53 54
55 57 60 63 63 62 61 62 61 60 59 59 60 60 58 54 51 52 53 52 50 49 49 49 48 49 48 48 50 51 52 53 54
50 51 51 51 53 53 55 56 57 58 58 57 55 54 55 55 53 50 51 52 53 51 51 49 47 46 45 47 50 51 51 52 52

GFSFLT1_sfc_30mbdewp_072.txt.gz
Dewpoint
64 64 64 64 65 65 65 65 64 63 63 63 62 64 64 61 61 61 63 61 60 58 58 58 58 59 63 63 62 63 64 64 64
64 65 65 64 65 64 64 65 64 64 63 62 61 61 60 59 60 60 60 62 62 60 58 58 58 59 59 61 62 62 61 61 63
64 65 65 65 65 65 64 64 65 65 63 62 61 60 55 59 61 61 62 63 63 62 60 58 58 58 59 59 59 60 61 61 60
64 65 65 65 65 65 64 63 63 65 63 61 59 57 56 57 61 62 62 63 63 63 61 59 58 57 58 59 59 59 59 60 60
66 66 65 64 64 64 64 63 62 61 59 57 55 54 53 53 60 61 62 64 63 63 62 59 58 57 58 58 58 58 59 59 59
65 65 66 65 64 63 63 62 61 59 58 56 55 55 53 49 51 50 59 62 63 63 62 60 58 57 57 58 58 58 58 58 58
64 64 65 65 64 63 62 61 60 57 56 55 55 53 52 48 49 50 55 56 58 63 63 61 58 57 56 57 57 56 56 56 57
64 64 64 64 64 63 63 62 60 56 54 54 54 51 50 46 46 51 55 56 56 60 63 63 60 58 57 56 56 55 55 55 56
63 63 63 63 63 61 60 60 59 58 57 51 50 47 46 46 47 47 55 55 54 56 64 64 62 59 58 57 57 55 54 55 55
62 61 61 61 61 61 61 60 60 59 58 56 54 52 50 50 49 49 51 53 54 55 59 63 64 62 60 59 58 57 56 55 55
57 56 59 59 60 61 59 59 59 56 57 56 56 55 55 53 53 54 51 52 53 54 56 58 61 63 63 62 60 58 58 57 56
59 59 55 56 56 58 56 55 56 58 59 59 59 59 59 58 57 56 55 53 53 53 56 57 58 60 61 62 62 61 60 59 58
60 60 58 57 56 54 54 56 57 58 58 58 59 59 59 59 59 58 58 56 55 54 57 57 59 59 60 60 61 61 61 60 59
60 60 59 59 59 58 57 58 58 58 59 59 59 59 59 60 60 60 59 59 59 58 56 56 58 59 59 59 59 59 60 60 60
60 61 60 60 60 60 60 59 60 60 59 59 59 59 58 59 60 59 60 60 60 58 58 57 57 57 58 59 59 59 59 59 59
61 61 61 61 61 60 60 59 59 60 60 59 58 58 59 59 59 60 60 59 58 57 56 56 56 55 57 58 60 60 60 60 59
61 61 61 61 61 60 60 61 60 60 60 56 56 54 54 55 56 56 56 56 54 54 53 52 52 53 55 55 55 55 55 55 56
62 62 62 63 63 62 62 62 61 59 60 60 58 53 52 54 54 53 53 52 52 51 50 50 51 51 51 50 51 52 53 54 55
63 64 64 63 63 62 61 61 61 60 58 58 59 59 58 55 50 53 53 53 50 49 49 49 49 49 48 50 52 53 54 54 54
54 54 54 55 55 55 55 56 57 57 58 57 56 54 54 55 54 50 51 52 53 51 50 49 47 46 47 50 51 51 52 53 52

GFSFLT1_sfc_30mbdewp_075.txt.gz
Dewpoint
63 64 64 65 65 65 64 64 64 64 64 65 66 64 64 61 61 62 62 60 60 59 58 58 59 61 62 61 62 61 63 65 65
64 64 64 65 65 65 64 63 63 63 63 62 64 64 61 59 60 60 62 62 62 60 59 58 59 59 59 61 62 62 59 60 63
64 63 64 65 65 64 64 64 64 63 62 61 61 59 59 60 60 61 62 64 63 62 60 59 58 59 59 59 59 60 61 61 60
64 63 64 65 65 64 64 64 65 64 62 60 60 58 56 60 60 61 62 63 63 63 61 59 58 58 59 59 59 59 59 60 60
65 65 65 65 65 65 64 63 62 62 60 58 55 55 54 57 60 61 62 64 63 63 62 60 58 58 58 58 58 59 59 59 59
66 65 65 65 64 64 63 63 62 59 57 56 56 55 53 49 55 53 58 64 63 63 62 60 59 57 57 58 58 58 58 58 58
64 65 65 65 64 64 63 62 60 58 55 55 54 53 51 48 48 50 53 57 58 62 64 62 59 58 57 58 57 56 56 56 57
63 63 64 64 64 62 63 62 60 56 54 53 54 52 51 46 46 49 54 57 56 58 63 64 61 59 58 57 56 55 55 55 56
63 63 63 62 63 60 60 59 58 57 56 55 51 50 47 46 46 47 51 56 56 56 60 64 63 61 59 58 57 55 54 55 55
63 63 62 61 61 61 59 59 59 59 59 57 54 53 51 50 49 49 49 54 56 55 57 63 64 63 62 60 59 58 56 55 55
62 62 60 60 60 61 60 60 60 59 57 57 56 56 55 55 54 53 54 53 54 55 56 58 61 63 63 63 61 60 59 58 57
60 58 57 59 59 59 60 57 57 57 58 59 59 59 59 59 58 57 56 55 55 54 56 58 59 59 61 62 62 62 61 60 59
58 58 57 55 55 55 55 55 55 57 58 58 58 59 59 59 59 59 58 57 56 55 56 57 60 60 60 60 60 60 60 61 61
60 60 59 58 56 55 54 55 57 57 58 58 59 59 59 59 60 59 60 59 59 58 57 57 58 59 59 59 59 59 60 60 61
60 60 60 59 59 59 58 57 59 59 59 59 59 59 59 59 59 59 60 60 60 60 59 58 58 57 57 59 59 59 59 60 60
60 60 60 60 59 60 60 60 59 59 60 59 57 57 57 58 58 59 59 59 59 59 58 57 56 56 58 59 59 59 60 58 57
61 60 60 61 61 61 60 60 60 60 60 58 56 54 54 55 55 54 55 56 54 55 55 55 54 54 55 55 55 55 55 55 56
62 61 61 61 62 61 61 61 60 59 59 60 56 53 50 54 54 53 54 53 52 51 51 51 52 52 52 50 52 54 55 55 56
62 62 62 63 63 63 62 62 61 60 58 58 58 58 58 54 50 52 53 53 50 49 49 49 50 49 50 52 53 54 54 54 54
61 61 61 61 60 59 59 59 59 58 58 56 55 54 53 55 54 50 50 51 53 51 49 49 47 47 49 50 51 52 53 53 53

GFSFLT1_sfc_30mbdewp_078.txt.gz
Dewpoint
66 65 65 65 64 65 65 64 65 66 68 66 65 64 63 62 61 61 62 60 60 59 59 59 60 61 62 62 62 59 59 63 64
64 65 65 65 65 65 65 64 64 63 65 66 65 62 61 59 60 61 62 62 61 60 59 59 59 59 60 61 61 61 61 59 60
63 64 65 65 64 64 64 63 63 63 62 63 63 61 60 59 60 61 63 64 63 62 60 59 59 59 59 59 59 60 60 60 60
64 64 65 65 64 64 64 64 64 63 62 61 60 57 60 59 60 61 62 63 63 63 61 60 59 59 59 59 59 59 59 59 59
64 64 65 65 65 64 64 63 63 62 60 58 56 56 57 58 59 60 61 64 63 63 62 60 59 59 59 59 59 58 59 59 59
65 65 66 66 65 65 64 63 62 59 57 57 57 54 52 50 57 54 56 64 62 63 63 60 59 58 58 58 58 57 57 58 58
65 65 65 65 65 64 63 62 61 57 55 54 54 52 51 49 48 50 52 58 57 60 64 62 59 58 57 58 57 56 56 56 57
64 64 64 64 64 62 62 61 59 56 54 53 53 53 50 47 46 47 53 57 57 57 59 64 62 59 58 57 57 55 55 55 56
62 62 62 62 62 60 59 59 58 57 56 55 52 51 48 47 46 47 49 56 57 56 57 62 64 62 60 59 58 56 55 55 55
62 62 62 61 61 60 58 58 58 58 58 58 56 55 54 51 51 50 51 52 56 57 56 61 64 64 63 62 60 59 57 56 56
62 62 61 60 60 60 59 59 59 59 58 57 57 57 56 55 55 54 54 55 55 57 56 57 60 63 63 62 63 61 60 59 58
61 62 61 59 59 59 60 59 57 58 57 57 59 59 59 59 58 58 58 57 56 56 57 57 58 60 60 61 62 62 62 62 61
60 60 58 57 58 58 58 58 55 56 57 57 58 58 59 59 59 59 59 58 57 56 57 59 58 59 60 60 60 60 60 60 61
58 58 58 57 55 55 54 54 55 56 57 58 58 59 59 59 59 59 59 59 59 59 58 58 58 59 60 60 59 59 60 61 61
58 59 59 59 56 56 55 54 57 58 59 59 59 59 59 59 58 58 59 59 59 60 60 59 59 59 59 59 59 59 60 60 60
59 60 60 59 59 59 58 58 58 59 60 59 57 56 56 57 57 58 57 57 59 59 58 58 57 58 58 58 59 59 58 57 57
61 60 60 60 59 59 60 60 59 59 60 58 56 53 53 54 55 54 54 54 54 55 55 55 55 55 55 56 56 56 55 56 56
62 61 61 61 61 61 61 60 60 59 59 59 56 52 50 53 55 53 54 53 52 51 51 51 53 53 52 51 54 55 55 55 55
63 62 62 62 62 62 62 62 61 61 58 58 58 58 57 55 51 52 53 53 50 49 49 50 50 50 51 53 53 54 55 54 54
61 61 62 62 61 61 61 60 59 59 58 57 55 54 53 54 53 49 49 51 52 51 49 49 47 48 50 51 53 53 53 53 53

GFSFLT1_sfc_30mbdewp_081.txt.gz
Dewpoint
65 64 65 66 66 66 65 66 68 68 67 65 65 62 63 61 61 61 61 60 60 60 60 60 60 61 61 61 62 61 61 60 61
65 65 65 65 66 66 65 65 65 67 66 65 63 62 61 60 62 63 63 62 62 60 60 60 60 60 60 60 60 61 60 60 59
65 65 65 65 66 65 64 64 64 63 65 65 62 61 59 59 61 63 63 64 63 62 60 60 60 60 59 59 60 60 60 60 59
64 65 65 65 65 65 64 64 63 62 62 61 60 61 60 57 59 60 62 64 63 62 61 60 60 60 59 59 59 59 59 59 59
65 65 65 65 65 65 65 64 63 62 60 58 58 58 59 58 59 59 60 64 63 63 61 60 59 59 59 59 59 58 59 59 59
63 65 65 66 65 64 64 63 61 59 58 58 57 53 52 51 56 54 55 63 62 63 63 60 59 58 59 58 58 57 57 58 58
64 65 65 65 65 64 63 62 60 56 54 54 54 53 52 49 49 51 52 57 58 59 63 62 60 58 58 58 57 56 56 56 57
64 65 64 64 63 62 62 61 58 55 55 54 53 53 51 49 48 47 51 56 58 57 59 64 63 60 59 58 57 55 55 55 56
63 63 64 63 63 61 60 59 58 56 55 55 54 52 50 49 49 48 49 53 58 57 57 60 64 63 61 60 59 57 55 55 55
62 61 62 62 61 60 58 58 57 57 58 58 57 56 55 54 53 53 52 53 56 58 57 58 63 64 63 62 61 60 59 57 57
62 62 62 62 61 61 59 57 59 59 59 58 58 58 57 57 56 57 57 55 56 58 58 57 59 61 63 63 63 63 61 60 59
62 62 62 61 60 59 60 59 59 59 59 57 58 59 59 59 59 59 59 59 58 57 60 59 58 59 61 61 61 61 62 62 62
62 61 62 61 60 59 60 59 58 56 56 58 58 58 59 59 59 59 59 60 59 59 58 60 60 60 61 61 61 60 61 61 61
61 60 60 59 58 58 58 57 57 55 56 57 58 59 59 59 59 59 59 59 60 60 60 59 59 60 60 60 61 60 60 61 61
59 59 59 58 57 56 55 54 55 56 58 58 59 60 60 60 59 58 59 59 59 60 60 61 60 59 60 61 59 59 60 60 60
58 58 58 59 58 56 56 56 56 57 60 59 58 57 57 57 57 57 57 56 57 58 59 59 59 58 59 58 59 59 59 58 57
61 60 59 60 60 59 59 59 59 59 61 57 56 53 53 54 55 55 54 54 54 56 56 57 57 58 57 58 57 57 56 56 56
63 63 62 61 61 60 60 61 60 59 60 59 56 51 50 53 55 55 54 54 53 52 53 53 54 54 53 53 54 55 56 56 56
63 63 62 62 62 62 62 63 62 59 57 59 59 58 58 52 51 52 53 53 52 51 50 51 51 51 52 53 54 55 55 55 54
63 63 63 62 61 60 60 60 60 60 59 58 57 56 56 55 53 46 49 51 52 52 51 50 49 50 51 52 53 54 54 54 53

GFSFLT1_sfc_30mbdewp_084.txt.gz
Dewpoint
65 66 66 67 67 65 67 68 68 68 66 65 62 63 62 59 57 58 59 59 61 61 60 60 60 61 61 61 62 61 61 61 61
65 66 66 67 66 66 66 68 67 67 66 63 61 62 60 56 58 59 60 62 62 61 60 60 60 60 60 60 60 60 60 60 60
64 65 66 66 65 65 65 65 66 67 65 63 61 61 58 55 57 59 60 63 63 62 60 60 60 60 60 60 59 60 60 60 60
63 64 65 66 65 65 64 64 63 63 64 62 62 61 57 52 54 55 58 64 63 62 61 60 60 60 60 59 59 59 59 59 59
64 63 64 66 66 65 64 64 63 62 60 59 59 60 57 52 54 53 56 64 62 62 61 60 60 60 60 59 59 58 59 59 59
63 63 64 66 65 65 65 64 62 60 58 58 56 53 49 50 51 50 56 61 62 63 62 60 59 59 59 58 58 58 58 58 58
59 63 65 66 66 65 63 62 60 56 52 54 55 51 50 48 48 48 51 56 59 59 64 62 60 59 58 58 57 56 56 56 56
61 62 63 61 63 58 60 59 54 51 50 51 50 50 49 47 47 47 50 56 58 58 59 64 63 61 59 58 57 56 55 55 55
59 59 58 58 57 56 55 53 52 52 52 51 49 49 50 50 51 51 49 53 57 58 58 59 64 64 61 60 59 58 56 56 56
58 57 58 56 56 55 54 53 51 51 52 55 54 54 55 55 55 55 53 53 56 58 58 58 60 64 63 63 62 61 60 58 58
57 56 57 56 56 54 52 51 52 53 56 56 56 57 57 57 57 57 57 57 57 58 60 59 59 60 63 64 63 63 62 61 60
59 57 59 59 59 56 55 52 56 58 58 56 56 57 58 57 58 58 58 58 58 58 60 61 60 60 61 62 62 62 62 63 62
61 60 60 60 58 57 57 56 57 56 55 54 56 57 58 58 57 57 57 57 57 58 59 60 62 61 61 62 62 60 61 60 62
61 59 59 60 58 57 57 57 56 54 54 55 56 57 57 57 56 55 56 57 58 57 58 60 59 60 61 62 61 61 61 61 61
62 59 58 59 58 57 57 55 55 54 54 56 56 57 57 56 56 55 55 56 57 56 57 58 59 60 60 62 61 60 60 61 60
60 58 58 59 58 58 57 55 55 55 58 59 58 55 56 55 54 54 53 53 54 56 57 58 58 58 58 60 59 59 61 59 58
61 60 59 59 59 59 58 56 57 57 59 56 56 51 51 52 53 53 54 53 53 55 55 56 56 58 58 59 60 59 58 57 57
64 63 63 62 61 61 60 59 58 59 60 60 54 51 48 51 51 53 53 52 52 53 53 54 55 56 56 55 54 55 56 56 56
64 64 64 63 63 62 62 63 62 60 57 59 59 57 54 50 46 50 51 51 48 50 52 52 52 53 53 53 54 54 55 55 55
63 63 63 63 63 62 61 61 61 60 59 56 55 57 57 57 54 42 43 48 48 50 50 51 51 51 52 52 53 54 54 54 54

GFSFLT1_sfc_30mbdewp_087.txt.gz
Dewpoint
66 66 66 65 63 65 66 67 67 67 65 61 62 61 60 60 57 58 59 60 61 61 61 61 61 60 60 61 61 61 61 61 61
66 67 66 65 65 67 68 68 67 66 63 61 61 61 59 56 58 59 60 62 61 61 61 61 61 61 60 60 60 60 60 60 60
66 65 66 66 66 67 68 67 67 66 63 61 60 59 58 55 57 59 61 63 62 62 61 61 61 60 60 60 60 60 60 60 60
64 66 67 65 65 66 65 66 67 66 63 62 61 58 57 54 54 56 60 63 62 62 61 61 60 60 60 60 59 59 59 59 59
65 64 67 66 65 65 65 64 63 63 61 60 61 59 56 52 53 53 60 63 62 62 61 60 60 60 60 59 59 59 59 59 59
63 63 66 66 66 65 65 64 63 61 59 58 58 57 52 50 50 51 59 64 63 63 62 61 60 59 59 59 58 58 58 58 57
59 63 65 66 66 65 64 63 61 58 54 55 55 52 49 47 49 50 52 56 61 60 64 62 60 59 59 58 57 56 56 56 56
61 63 63 64 64 61 62 61 55 52 50 50 49 49 48 46 47 50 51 55 58 59 59 63 63 61 60 59 58 56 56 56 55
59 60 60 59 58 56 56 55 52 51 50 49 48 48 48 48 49 50 49 53 57 58 59 59 64 64 62 61 60 59 57 57 56
58 57 56 56 55 54 54 52 50 50 49 49 50 49 51 52 53 54 52 53 56 58 59 59 60 62 64 63 62 61 61 59 59
57 56 56 55 54 53 52 51 50 48 49 52 54 54 55 55 55 56 56 56 57 58 60 61 60 60 62 64 64 63 63 62 61
54 53 54 55 55 53 52 50 49 51 52 54 54 54 55 56 56 56 57 59 58 59 61 62 62 62 61 62 63 63 63 63 63
57 56 57 57 57 56 53 52 51 55 55 54 53 55 56 56 56 56 56 56 56 59 59 61 62 62 62 62 62 62 62 61 62
60 60 60 59 58 56 55 55 54 54 54 53 53 55 56 56 55 54 54 54 56 57 59 60 60 60 62 62 63 62 61 61 61
63 60 58 58 59 56 56 55 55 54 53 52 53 56 57 56 54 54 53 54 54 54 54 57 58 59 60 62 62 62 61 61 60
63 62 57 58 59 58 57 56 54 54 54 55 55 56 55 54 54 53 53 51 52 52 55 57 57 59 59 60 61 60 61 60 59
61 61 59 59 60 59 59 57 56 55 56 57 55 54 54 52 52 52 52 51 50 52 54 54 55 56 59 59 60 60 59 59 58
63 62 62 62 62 61 62 61 57 56 58 59 56 51 49 50 51 52 52 50 49 50 52 52 54 55 56 56 55 55 56 56 57
64 64 64 64 63 62 62 62 63 61 59 60 59 57 55 49 47 52 50 51 47 47 50 51 52 53 54 53 53 54 55 56 56
63 64 64 63 63 63 62 62 61 61 60 58 57 56 56 56 52 47 44 49 48 49 49 49 50 51 52 53 53 54 55 54 54

GFSFLT1_sfc_30mbdewp_090.txt.gz
Dewpoint
67 67 66 65 65 66 67 67 67 65 63 62 62 60 60 60 58 60 62 61 62 62 61 61 60 60 60 60 61 61 61 61 61
67 66 63 62 65 66 67 67 67 64 61 61 61 60 59 60 60 62 62 62 61 62 61 61 61 61 60 60 60 60 60 60 60
66 64 62 63 65 67 68 67 66 63 61 60 60 58 58 57 60 62 63 63 62 61 61 61 61 61 60 60 60 60 60 59 59
64 63 64 66 67 68 68 67 66 64 62 61 58 56 56 56 58 62 63 63 62 62 61 61 61 61 60 60 60 59 60 59 59
63 64 64 64 67 67 67 67 67 65 63 62 60 56 55 55 54 62 63 63 62 62 61 61 61 60 60 60 59 59 59 59 59
62 64 64 65 66 66 65 64 64 62 60 59 58 57 55 53 53 58 63 64 63 62 61 61 60 60 59 59 58 58 58 57 57
62 65 66 65 66 66 65 64 63 59 57 56 55 53 52 49 51 54 58 61 62 62 63 62 61 59 59 58 57 56 56 56 55
63 64 65 65 65 65 64 63 60 57 56 55 53 52 50 48 49 52 52 55 59 59 61 64 64 62 60 60 58 57 56 56 55
63 62 62 64 63 61 61 60 57 55 52 51 50 50 49 48 50 51 51 54 57 59 59 60 63 65 63 61 61 60 58 57 57
61 61 62 61 60 59 58 57 55 52 50 50 49 49 48 50 53 50 51 53 56 58 59 60 60 61 65 64 63 62 61 60 59
59 59 58 58 57 56 55 54 52 51 50 50 52 52 53 56 55 56 53 55 56 58 60 61 61 61 61 62 64 64 63 62 62
58 57 56 56 55 54 53 52 51 50 51 51 54 55 55 56 56 57 57 57 57 59 61 62 63 63 62 62 62 63 62 62 63
56 55 55 55 55 55 54 52 50 52 54 55 55 54 56 57 56 57 57 58 59 59 60 62 63 63 63 63 63 62 62 61 61
57 57 56 58 58 57 56 53 52 52 55 55 54 55 56 56 56 56 55 54 57 58 59 60 61 61 61 62 62 63 63 61 61
60 61 60 60 60 57 56 55 56 55 55 54 52 55 57 57 57 55 54 55 54 54 55 58 59 59 61 62 62 62 62 61 61
63 62 59 58 60 58 57 56 55 55 55 54 54 55 57 57 56 55 53 52 52 53 56 57 57 60 59 60 61 62 61 61 60
63 63 61 58 60 60 59 57 56 55 55 54 56 54 55 55 54 52 52 51 51 53 54 54 56 58 59 58 59 60 61 60 58
62 62 62 61 62 61 61 61 61 57 57 56 56 54 52 52 52 52 52 51 49 51 53 53 54 55 56 56 55 56 57 57 58
62 62 62 62 62 62 61 62 61 61 59 60 60 58 56 50 50 52 50 50 48 48 50 51 52 53 54 53 54 54 55 56 56
62 62 63 62 63 62 62 62 62 61 60 59 58 57 55 55 52 48 47 49 48 49 49 50 51 52 52 54 54 54 55 55 55

GFSFLT1_sfc_30mbdewp_093.txt.gz
Dewpoint
68 68 69 68 67 65 64 65 65 64 64 62 60 60 61 60 61 62 62 62 62 62 62 61 61 61 60 60 60 61 61 61 61
68 67 68 65 66 66 66 66 65 63 62 61 61 60 60 60 62 62 62 62 62 62 62 62 61 61 61 61 61 61 60 60 60
67 66 62 62 63 66 67 67 64 62 61 61 60 58 58 61 62 62 63 63 62 62 61 61 61 61 61 60 60 60 60 59 60
65 63 62 64 66 68 68 66 64 62 60 59 56 56 56 59 62 62 63 63 62 62 61 61 61 61 61 60 60 60 59 59 59
62 63 63 62 68 68 68 67 65 63 62 60 56 56 56 55 61 62 63 62 62 62 61 61 61 61 60 60 59 59 59 58 59
62 64 63 65 67 67 68 67 67 64 61 59 57 56 55 55 61 62 64 63 62 62 61 61 60 60 60 59 58 58 58 57 57
61 64 63 65 66 66 65 65 64 60 57 56 55 53 52 52 57 60 63 64 63 63 62 61 60 60 60 59 58 57 57 56 55
62 65 64 64 65 65 65 65 62 58 56 54 53 51 51 50 53 56 59 60 61 60 63 64 63 62 60 60 59 57 57 57 55
63 64 65 63 64 64 63 62 59 57 55 55 54 51 51 49 50 53 54 56 58 60 60 61 63 64 63 62 61 60 59 58 57
63 62 63 63 63 62 62 60 57 55 54 51 52 49 49 48 50 51 52 54 57 58 60 61 61 62 64 65 63 63 62 60 60
62 61 62 62 62 61 60 58 57 54 52 50 50 51 49 49 53 50 52 54 56 58 60 61 61 62 62 62 63 64 64 63 62
61 61 61 61 59 57 57 56 53 51 50 50 51 53 53 56 56 56 53 55 56 58 61 62 62 63 63 63 62 64 63 64 63
59 58 58 58 57 55 53 52 51 51 51 52 53 55 55 55 56 57 57 56 57 58 60 62 63 63 63 62 63 63 63 62 63
58 56 56 55 55 55 54 53 52 50 53 55 55 55 55 56 57 57 57 58 58 59 59 60 61 61 62 62 62 63 64 63 62
57 56 55 56 57 56 56 54 54 52 52 55 54 54 56 57 57 56 55 55 57 56 57 59 59 59 61 62 62 62 63 63 61
58 59 58 59 59 57 56 56 55 55 56 54 54 53 55 57 57 56 54 54 53 55 56 57 58 60 59 60 61 62 62 62 61
62 61 60 59 60 58 57 56 56 55 56 54 55 52 54 56 56 56 52 52 52 55 54 55 56 59 58 58 59 61 61 61 60
62 62 62 60 60 60 59 59 57 55 56 56 55 54 53 54 53 52 52 50 50 53 54 54 54 56 56 55 55 56 58 60 59
62 62 62 61 61 61 61 62 61 60 58 60 60 58 57 52 50 53 51 50 48 50 51 53 53 54 53 53 54 54 55 57 57
61 61 61 61 62 61 61 61 61 61 60 59 58 58 57 56 53 50 49 49 49 49 49 50 52 52 54 53 54 55 54 55 56

GFSFLT1_sfc_30mbdewp_096.txt.gz
Dewpoint
68 69 70 69 68 67 66 64 66 66 65 61 62 62 63 62 62 62 63 62 62 62 61 61 61 61 61 61 61 61 60 61 61
68 69 69 67 67 65 65 65 65 64 63 61 62 62 62 61 61 61 62 62 62 62 62 62 61 61 61 61 61 60 60 60 60
68 68 68 67 67 66 66 65 63 62 62 62 61 61 62 62 61 62 62 63 62 62 62 62 62 61 61 60 60 60 60 60 60
67 67 66 63 63 67 67 65 62 62 61 61 58 59 61 62 62 62 63 63 62 62 62 62 62 61 60 60 60 60 59 60 60
66 64 61 64 66 67 68 65 62 61 61 58 56 57 59 61 61 62 63 63 62 62 62 62 61 61 60 60 60 59 59 59 59
63 62 63 63 66 69 68 66 64 63 61 58 56 56 55 59 62 62 64 63 62 62 61 61 61 60 60 59 59 59 58 57 57
62 63 63 63 67 68 68 67 66 62 58 56 56 53 53 54 60 62 64 63 62 62 61 61 60 60 60 59 58 58 57 56 55
63 63 63 64 65 66 66 66 63 58 55 53 53 52 51 51 57 58 63 63 63 64 64 63 62 61 60 60 59 58 57 57 56
63 64 63 64 65 64 64 63 60 58 55 54 53 51 51 50 53 54 60 62 61 61 61 64 65 64 63 62 62 61 59 58 58
63 64 64 62 64 64 63 62 60 57 55 55 54 53 51 49 50 51 56 57 59 60 61 61 62 63 65 65 64 63 62 61 60
63 63 63 62 63 63 62 61 58 55 54 53 51 52 49 49 50 50 52 55 56 59 60 61 62 62 62 63 64 65 64 63 62
63 62 62 62 62 62 60 59 58 55 54 52 50 50 51 51 53 51 50 53 55 57 60 62 62 62 63 63 63 64 64 64 64
63 62 61 62 61 60 59 58 56 54 52 50 50 51 54 54 56 55 52 53 55 57 60 62 63 64 63 62 62 63 64 64 64
62 61 60 60 59 58 56 55 54 51 51 52 52 54 55 55 56 56 57 56 56 57 57 59 62 62 62 62 62 62 63 64 63
60 60 59 58 57 56 55 53 53 51 51 54 55 55 55 55 57 56 56 57 58 58 58 59 60 59 60 62 62 62 63 63 63
59 58 57 57 56 55 55 54 53 53 52 53 54 54 54 56 56 57 56 55 57 57 57 58 58 60 60 60 61 62 63 64 62
59 58 56 57 56 57 56 55 55 54 55 53 54 52 53 55 56 57 55 54 54 55 56 56 57 58 58 58 58 61 61 62 62
59 59 59 58 58 58 57 57 56 55 56 56 54 53 51 53 54 55 54 53 53 55 54 55 57 56 56 55 55 56 58 61 60
60 61 61 60 60 60 59 58 57 57 56 58 59 57 55 52 50 53 52 51 50 53 54 54 54 55 54 54 54 54 55 57 59
61 62 62 61 61 61 60 60 60 59 58 57 58 58 57 56 53 51 51 51 50 51 52 53 53 53 53 53 54 54 54 56 56

GFSFLT1_sfc_30mbdewp_099.txt.gz
Dewpoint
68 70 70 69 68 67 66 66 66 66 64 63 62 62 62 61 61 62 63 62 62 62 62 62 61 61 62 61 61 60 61 61 60
69 70 69 68 68 67 65 66 67 65 63 63 63 63 63 61 61 61 62 62 62 62 62 62 62 61 61 61 60 60 61 60 60
68 69 68 68 66 66 65 66 65 63 63 62 63 63 61 61 61 62 62 63 62 62 62 62 62 61 61 61 60 60 60 60 60
67 68 68 67 66 66 65 65 63 62 63 61 62 63 62 61 62 62 63 63 62 62 62 62 62 61 61 60 60 60 60 60 60
66 67 68 67 66 67 66 64 62 62 63 60 59 62 62 61 61 62 63 63 62 62 62 62 62 61 60 60 60 59 59 59 59
66 67 66 64 65 66 66 64 63 62 60 58 58 57 60 60 61 62 63 63 62 62 62 61 61 61 60 60 60 59 58 57 57
64 63 62 63 64 68 67 66 65 62 59 58 58 54 54 58 61 61 64 63 62 62 61 61 61 61 60 59 59 58 58 56 56
63 62 62 63 66 68 68 67 64 60 56 54 54 52 52 52 58 60 64 63 63 62 62 62 62 61 61 60 59 58 58 57 56
63 62 62 63 66 66 66 65 63 59 55 53 52 51 51 51 52 57 61 64 63 63 64 64 64 63 63 62 62 61 59 58 58
64 63 63 62 64 64 64 63 61 58 55 55 54 53 51 51 50 54 56 61 63 62 61 62 63 64 65 65 64 63 63 61 60
63 64 63 62 63 63 63 62 60 58 56 54 54 53 53 50 49 51 52 57 58 61 61 62 62 63 63 63 63 65 65 64 63
64 63 64 63 63 63 62 62 60 58 55 53 53 52 51 50 49 50 50 52 55 57 60 62 62 62 62 63 63 64 64 64 64
63 63 63 63 63 62 62 61 59 57 55 53 52 51 51 51 52 52 51 51 52 55 59 61 63 63 63 63 62 62 64 64 64
62 62 62 62 62 61 61 59 58 55 54 53 52 51 52 53 54 56 55 52 53 55 56 59 60 62 64 63 62 62 62 64 64
62 60 61 61 61 60 59 58 56 55 54 52 52 53 54 55 55 55 56 57 56 56 57 58 59 60 61 62 62 62 62 63 64
61 61 61 61 60 59 58 57 54 54 52 52 53 54 55 55 55 56 57 56 57 58 58 58 58 59 60 60 61 62 62 63 64
61 61 60 60 59 57 56 56 54 53 54 51 53 51 52 54 55 56 56 56 56 57 57 57 58 58 58 58 58 60 62 62 62
60 60 60 58 58 57 56 56 55 53 55 54 53 52 50 53 54 55 56 54 54 55 56 56 57 57 57 56 56 57 59 62 62
62 61 60 58 58 57 57 57 56 55 54 56 57 57 55 52 51 53 52 52 52 54 54 55 56 56 55 54 54 55 56 58 61
62 62 61 60 59 58 59 58 57 57 56 55 57 57 56 55 52 51 51 52 51 52 54 54 54 54 54 53 53 53 54 56 57

GFSFLT1_sfc_30mbdewp_102.txt.gz
Dewpoint
67 69 70 70 69 68 67 67 66 65 64 63 63 62 63 61 61 62 63 61 62 62 62 62 62 62 62 61 61 61 61 60 60
69 70 70 69 68 67 66 66 66 64 64 63 63 63 62 61 61 62 62 62 62 62 62 62 62 62 61 61 61 61 61 61 60
69 69 70 69 67 66 66 66 66 63 64 63 64 64 61 61 61 61 62 63 63 63 62 62 62 61 61 61 60 60 61 60 60
68 68 69 68 68 67 66 66 65 63 64 63 65 63 61 60 61 62 62 63 62 63 62 62 62 61 61 61 60 60 60 60 60
68 68 68 68 67 67 67 65 63 63 63 62 64 63 62 60 61 62 62 64 63 63 63 62 62 61 61 61 60 59 59 59 59
67 67 68 67 68 67 66 64 63 64 63 59 61 63 61 60 61 61 63 64 62 62 62 62 61 61 61 60 60 59 58 57 57
66 67 67 67 67 67 66 64 64 63 60 59 58 57 59 59 60 61 63 64 62 62 62 62 61 61 60 59 59 59 58 57 56
65 65 66 64 64 66 67 66 64 60 57 56 56 54 54 55 60 61 62 64 63 62 62 62 61 61 61 60 59 58 58 57 56
63 62 62 63 65 66 67 66 63 60 56 54 53 53 52 52 53 58 61 64 63 63 63 63 63 63 62 62 62 61 59 59 58
64 63 63 63 65 65 66 65 63 60 56 54 52 51 50 51 51 52 57 60 64 64 63 64 64 64 65 64 64 63 63 62 60
63 63 63 63 64 64 64 64 62 60 57 55 54 54 53 51 51 50 53 55 61 63 63 62 63 63 63 64 64 65 65 65 64
63 63 63 63 64 64 63 62 61 60 57 55 54 54 53 52 51 50 50 51 56 58 60 62 62 63 63 63 63 64 64 64 64
63 63 63 64 64 63 62 62 61 60 58 56 53 52 52 51 51 50 50 50 51 54 57 60 63 63 63 63 63 62 63 64 64
63 63 63 64 63 63 63 61 60 59 58 56 54 53 52 51 52 52 52 51 51 52 54 56 60 62 64 64 63 62 63 64 65
63 62 62 62 60 61 61 61 59 59 58 55 53 53 53 52 53 54 55 56 53 53 54 55 57 59 61 63 62 62 62 63 64
63 62 61 62 59 57 59 60 59 57 56 54 53 54 54 54 54 55 56 56 57 57 56 56 57 58 60 61 61 61 62 62 63
60 61 62 61 60 59 59 58 57 57 55 54 52 50 51 54 55 55 56 56 56 57 57 58 58 59 59 59 60 60 61 62 63
61 61 61 61 61 58 59 59 58 55 54 54 52 50 49 51 54 55 55 56 56 56 57 57 58 58 58 58 58 58 59 61 62
62 61 61 61 60 60 59 58 57 55 54 54 55 55 54 51 50 53 53 54 54 55 55 56 57 57 57 56 55 56 57 59 61
60 61 61 60 60 59 59 58 57 57 55 54 54 56 56 55 52 51 51 52 52 53 55 55 56 56 56 55 54 55 56 57 59

GFSFLT1_sfc_30mbdewp_105.txt.gz
Dewpoint
68 69 69 69 69 69 68 67 67 67 66 64 63 62 64 62 61 61 61 61 62 62 62 62 62 62 62 61 61 61 61 61 61
69 69 69 69 69 69 68 66 65 64 64 63 63 63 63 60 61 61 62 62 63 62 63 63 62 62 61 61 61 61 61 60 60
68 69 70 69 68 68 67 66 64 64 64 63 64 63 61 60 61 62 63 63 63 63 63 62 62 62 61 61 61 61 60 60 60
69 68 69 69 68 68 67 66 65 64 64 65 65 63 61 59 60 62 62 64 63 63 63 62 62 61 61 61 60 60 60 60 60
68 68 68 68 67 67 67 67 65 65 64 65 65 62 61 59 61 61 62 64 63 63 63 62 62 61 61 61 60 60 59 59 59
67 66 67 67 67 68 68 66 65 65 64 63 64 63 61 59 59 61 63 65 63 63 62 62 62 61 61 61 60 59 58 58 58
67 66 67 67 67 68 67 66 65 65 61 59 63 62 61 60 60 60 62 65 63 62 62 62 62 61 61 60 60 59 58 57 57
67 66 67 66 67 67 65 65 62 62 60 58 57 57 60 60 60 60 62 65 63 63 62 62 62 62 61 60 59 59 58 57 57
66 65 66 65 65 66 65 64 62 61 58 56 56 55 55 55 56 60 61 63 64 63 63 63 63 62 62 62 61 60 60 59 58
65 65 65 65 65 65 65 65 63 59 57 54 53 53 53 52 52 53 56 60 64 64 64 64 64 64 63 63 63 63 63 62 61
65 64 64 64 65 65 65 64 63 61 58 55 53 52 51 51 51 51 52 56 60 63 65 63 63 64 64 64 64 65 65 65 64
64 64 64 64 64 65 65 65 64 62 60 58 55 54 53 53 53 52 51 52 55 59 61 63 63 63 63 63 64 64 64 64 64
64 63 64 64 64 64 64 63 63 61 60 58 56 55 54 53 53 52 52 51 51 54 58 60 62 63 63 63 63 64 63 64 65
63 63 63 64 63 63 63 63 62 61 60 59 58 56 54 52 52 52 52 51 51 52 53 56 58 61 64 63 63 63 63 64 64
63 63 63 64 63 62 63 62 61 61 60 59 57 56 56 54 54 53 52 53 53 53 53 54 56 57 60 63 63 63 62 63 64
62 62 62 63 61 61 61 62 60 59 59 58 57 57 56 55 54 54 53 53 55 56 55 54 55 57 58 60 63 62 61 62 62
61 62 61 61 61 60 58 58 57 59 58 56 55 52 50 54 54 54 54 54 55 56 57 57 57 57 58 60 61 62 62 61 62
61 61 62 62 61 60 59 58 56 54 56 57 54 50 48 50 53 54 54 54 56 56 57 58 58 58 59 60 60 60 61 61 61
61 61 61 61 61 61 60 59 58 57 54 56 56 55 54 50 47 54 55 55 55 56 57 57 58 58 59 59 59 58 58 60 59
61 61 61 61 61 61 60 60 59 59 57 55 54 55 54 55 53 50 53 53 54 56 56 57 57 58 59 58 58 56 57 59 60

GFSFLT1_sfc_30mbdewp_108.txt.gz
Dewpoint
68 69 69 69 68 69 67 66 66 66 65 65 64 64 64 61 55 55 58 56 61 62 62 63 62 62 62 62 62 61 61 61 61
69 68 69 68 68 68 67 66 66 66 66 64 63 63 63 55 55 56 58 60 63 63 63 63 62 62 62 62 61 61 61 61 60
69 68 70 68 69 69 68 67 66 65 64 64 64 63 60 56 55 57 59 63 63 63 63 62 62 62 61 61 61 61 61 61 60
69 69 70 69 69 68 68 66 64 65 64 65 65 63 60 54 55 57 59 64 63 63 63 62 62 62 61 61 61 61 60 60 60
68 68 69 68 68 69 68 67 65 65 65 66 65 63 60 53 56 56 58 64 63 63 63 62 62 61 61 61 60 60 60 60 59
66 66 67 67 67 67 68 67 66 66 65 65 65 62 57 54 54 55 62 65 63 63 63 63 62 61 61 61 60 59 59 59 59
63 65 66 67 67 67 67 67 66 65 59 59 65 60 57 56 56 54 62 65 63 63 63 63 62 62 61 60 60 59 58 58 58
64 64 66 67 66 65 66 66 63 61 57 55 57 58 57 56 56 56 61 64 64 63 63 63 62 62 61 61 60 59 59 58 57
63 62 64 66 65 64 64 63 61 58 57 55 55 54 55 55 55 55 60 63 64 63 63 63 63 62 62 62 61 61 60 59 58
64 64 64 65 65 65 64 62 60 57 55 53 53 54 53 52 52 52 59 61 63 64 63 63 63 63 63 63 63 63 63 62 61
65 65 65 64 65 65 64 64 63 59 52 49 50 51 51 51 51 51 52 55 59 62 64 65 64 64 64 64 64 64 64 64 64
64 64 64 65 65 65 65 65 64 62 58 52 48 48 48 48 48 50 50 52 54 58 61 62 64 64 64 64 64 65 65 65 64
62 61 62 63 63 63 63 63 64 63 63 59 56 54 51 49 49 50 51 52 52 54 57 61 62 64 63 63 63 64 64 64 65
60 60 60 61 62 63 63 63 63 62 62 61 60 58 54 51 50 50 51 52 52 52 52 56 59 61 64 64 64 63 64 64 64
60 60 60 60 62 62 63 62 63 62 62 61 60 59 58 55 52 49 49 51 52 52 52 52 54 56 59 62 63 63 64 64 64
60 60 60 61 61 61 62 62 61 61 62 60 58 59 59 57 57 54 50 51 52 52 53 53 54 54 56 59 62 62 63 63 63
59 59 60 61 62 61 60 60 60 59 60 57 55 52 52 55 55 54 54 53 54 53 53 54 55 56 56 58 60 62 62 62 61
60 59 60 60 61 60 60 59 59 56 57 59 54 52 49 48 50 54 54 52 53 53 54 55 56 56 57 58 59 61 62 62 61
60 61 60 60 60 60 60 60 59 57 54 57 57 54 53 50 46 46 50 50 50 52 54 55 56 57 58 59 60 60 61 62 61
59 60 60 60 60 60 60 60 60 59 57 55 55 56 54 53 52 50 53 54 54 54 54 55 57 58 59 60 60 59 60 60 59

GFSFLT1_sfc_30mbdewp_111.txt.gz
Dewpoint
68 68 68 68 68 69 68 67 66 66 66 66 66 65 64 60 54 55 57 58 62 62 63 63 62 62 62 62 62 61 61 61 61
69 69 69 69 68 68 68 66 66 66 66 65 63 64 62 59 53 54 56 61 63 63 63 63 62 62 62 62 62 61 61 61 60
69 69 69 69 67 67 67 66 66 65 65 64 64 63 60 56 54 55 58 63 63 63 63 63 62 62 62 62 61 61 61 61 60
69 69 69 69 69 69 68 67 67 65 65 65 65 63 59 58 53 55 59 64 63 63 63 62 62 62 61 61 61 61 61 60 60
68 68 68 69 69 68 68 67 66 66 66 66 65 62 60 57 54 55 61 64 63 63 63 62 62 62 61 61 61 60 60 60 59
65 66 66 68 68 68 67 66 66 66 66 67 65 62 58 53 53 53 63 64 63 63 63 63 62 61 61 61 60 59 59 59 59
60 62 66 67 68 67 67 66 66 66 60 62 65 60 57 54 52 54 62 65 64 63 63 63 62 62 61 61 60 59 59 58 58
61 61 65 66 67 67 66 66 65 61 56 55 58 59 56 55 54 58 62 64 64 63 63 63 63 62 62 61 60 60 59 58 58
60 61 62 65 66 66 66 66 64 61 58 54 53 54 55 55 54 56 59 62 64 64 63 63 63 63 62 62 61 60 60 59 59
62 61 62 64 65 66 66 66 64 60 57 55 53 52 52 52 52 52 59 60 62 64 64 64 63 63 63 63 62 62 62 61 61
64 64 64 64 66 66 65 64 64 62 58 55 53 51 51 51 50 51 56 59 60 62 63 64 63 63 63 63 64 64 64 64 63
63 64 64 64 65 65 65 65 65 64 63 58 50 48 48 49 49 50 51 54 55 58 61 62 63 65 64 64 64 65 66 65 65
62 62 62 63 63 63 63 63 64 64 64 63 58 52 49 47 46 47 48 50 51 55 57 60 62 62 64 64 63 64 64 65 65
61 61 61 61 61 61 62 63 63 62 63 62 60 57 54 52 50 48 49 50 51 52 55 56 58 61 63 63 63 63 64 64 65
61 62 62 61 60 61 62 62 63 62 61 62 61 61 59 57 55 52 49 49 51 53 53 56 56 57 60 61 61 63 64 64 65
61 60 60 61 60 60 60 60 61 61 62 61 61 61 61 59 57 57 54 50 49 52 53 53 54 54 56 58 60 61 62 64 64
60 59 60 60 61 60 60 61 60 60 62 58 58 55 56 58 57 58 57 55 51 52 53 52 53 54 56 57 58 60 60 62 63
60 60 60 60 61 60 61 60 60 59 59 60 57 53 50 51 53 55 55 54 54 53 53 53 53 55 56 57 58 58 60 62 62
60 60 60 60 60 61 60 61 61 59 58 58 59 57 55 49 48 49 52 52 51 51 52 53 53 54 56 57 58 58 59 61 61
59 60 60 60 60 60 60 60 60 60 59 58 56 57 57 56 53 50 50 54 54 53 50 52 54 55 56 58 59 59 60 61 62

GFSFLT1_sfc_30mbdewp_114.txt.gz
Dewpoint
69 68 68 68 69 68 68 68 67 67 67 65 66 66 64 61 59 57 61 62 62 63 63 63 62 62 62 62 62 61 61 61 61
69 69 69 69 69 68 67 68 67 66 67 66 66 64 61 60 58 54 61 62 63 63 63 63 62 62 62 62 62 61 61 61 60
69 69 69 70 69 67 68 67 66 66 66 65 63 63 60 57 56 57 63 64 63 63 63 63 62 62 62 62 61 61 61 61 60
68 69 68 68 69 67 68 67 67 66 66 66 66 63 59 58 57 57 63 64 63 63 63 63 62 62 62 62 61 61 61 60 60
68 68 68 68 68 68 68 67 66 67 66 66 66 63 59 57 57 55 63 64 63 63 63 62 62 62 61 61 61 60 60 60 60
67 67 66 68 68 68 68 67 66 66 66 66 65 63 60 56 54 56 64 64 63 63 63 63 62 62 61 61 60 60 60 60 59
63 65 66 67 68 68 68 67 66 66 65 66 66 63 60 59 54 60 64 63 63 63 63 63 62 62 62 61 60 60 59 59 58
61 63 65 67 67 68 67 66 66 65 63 62 64 63 60 58 55 61 63 63 63 63 63 63 63 63 62 61 61 60 59 59 58
62 62 65 66 67 67 67 66 65 64 61 58 60 61 60 58 56 60 61 63 63 63 64 63 63 63 63 62 61 61 60 60 59
61 61 62 65 66 66 67 66 66 64 61 59 55 55 57 56 55 59 60 62 63 63 64 64 64 63 63 63 62 62 62 61 61
63 63 64 65 65 66 66 66 66 64 63 59 57 54 52 53 53 54 59 59 61 63 63 64 64 64 63 63 63 63 63 63 63
63 63 63 64 65 66 66 66 65 64 63 59 57 54 52 50 51 51 56 59 59 60 61 62 63 64 65 64 64 64 65 65 65
62 63 63 64 64 65 64 65 64 64 63 61 60 57 55 49 48 49 49 55 56 58 60 62 62 62 63 64 64 65 65 65 65
61 62 62 62 62 62 62 63 63 63 63 63 62 60 55 52 50 49 49 49 52 54 55 57 59 62 63 62 63 64 64 65 64
62 61 61 61 60 59 61 61 60 61 62 61 62 61 59 56 54 53 51 49 50 52 54 56 57 58 60 62 61 62 65 65 64
61 61 60 57 57 56 58 60 60 61 62 60 60 61 61 61 60 57 55 53 50 50 52 54 55 55 58 59 61 62 62 65 65
61 61 60 60 60 60 60 59 60 60 61 59 58 55 57 60 60 60 58 56 55 53 52 53 54 54 56 57 59 60 61 61 64
61 60 60 60 60 61 60 60 60 59 59 60 57 55 52 53 57 58 58 57 56 56 54 53 53 53 54 57 57 58 60 61 62
62 61 60 60 60 59 60 60 60 59 58 60 60 58 56 52 49 52 56 56 56 55 55 54 53 52 53 55 57 57 58 60 60
58 58 60 60 60 59 59 59 59 60 59 58 57 59 58 57 55 52 51 52 53 53 53 53 52 52 53 55 57 58 58 60 61

GFSFLT1_sfc_30mbdewp_117.txt.gz
Dewpoint
69 68 68 68 68 69 69 69 68 68 67 65 65 66 63 62 58 61 64 62 63 65 63 62 63 62 62 62 62 62 61 61 61
69 69 69 69 69 69 68 68 68 67 67 66 66 65 63 59 58 59 61 62 63 63 63 63 63 62 62 62 62 61 61 61 61
69 69 69 70 69 69 67 68 68 67 66 66 66 64 61 58 57 59 62 64 63 63 63 62 62 62 62 62 61 61 61 60 60
69 69 69 69 69 68 67 68 68 66 66 66 65 63 60 58 57 61 63 64 63 63 63 63 62 62 62 62 61 61 61 60 60
68 69 69 69 68 68 68 68 67 67 67 67 66 64 61 57 56 57 63 65 63 63 63 63 62 62 62 61 61 61 60 60 60
67 67 67 68 68 68 68 68 67 67 67 66 67 65 61 57 55 57 64 64 63 63 63 63 62 62 62 61 61 60 60 60 60
66 66 66 67 68 68 69 68 67 66 66 66 66 64 60 58 57 56 64 64 63 63 63 63 62 62 62 61 60 60 60 59 59
66 64 65 66 67 67 68 68 67 66 65 65 65 63 61 59 58 57 64 65 63 63 64 63 63 63 62 62 61 60 60 59 59
63 62 64 66 66 67 67 66 66 65 64 62 63 64 62 60 58 58 64 65 63 62 64 64 63 63 63 62 62 61 61 60 59
62 62 64 66 66 66 66 66 65 65 63 62 59 61 61 59 58 58 63 63 64 63 63 64 64 63 63 63 63 62 62 61 61
63 62 63 64 66 66 66 66 66 65 64 62 60 56 58 59 57 57 61 62 63 64 64 63 64 64 64 63 63 63 63 63 62
63 63 63 64 65 66 66 66 66 65 65 64 61 59 54 54 54 54 58 60 61 62 64 63 64 65 64 64 63 64 65 64 64
63 63 63 64 64 65 65 65 65 65 64 63 60 58 57 54 51 51 55 58 59 60 62 63 63 64 64 64 64 65 66 66 66
61 62 63 62 62 63 63 63 63 62 63 64 63 63 62 58 55 51 49 52 56 57 59 60 62 63 64 62 63 64 66 66 66
61 61 61 62 61 61 61 61 62 61 61 61 62 63 62 61 57 53 52 51 50 53 54 56 59 60 62 63 62 63 65 66 66
61 61 61 61 60 59 59 59 58 58 59 59 59 60 62 61 59 58 55 54 52 51 52 54 55 55 59 61 62 63 63 65 66
61 61 60 60 57 57 57 58 59 59 61 57 57 54 57 60 60 60 60 58 57 54 51 52 53 54 55 57 60 61 62 63 65
58 60 60 59 58 57 59 59 59 57 59 60 55 55 53 55 58 59 59 59 59 58 56 54 53 54 54 55 56 58 60 61 62
55 58 60 60 60 58 59 60 59 59 57 59 59 58 55 52 51 54 57 58 58 57 57 56 55 53 54 55 55 55 57 59 61
50 52 58 60 60 60 59 59 59 59 59 58 57 57 58 58 56 53 53 53 55 57 57 56 56 55 54 53 54 56 57 58 60

GFSFLT1_sfc_30mbdewp_120.txt.gz
Dewpoint
69 69 69 68 68 69 69 69 68 68 67 65 66 66 64 61 58 62 64 62 63 63 63 63 63 62 62 62 62 62 61 61 61
69 69 69 68 68 69 69 69 68 68 67 65 65 66 64 59 57 62 63 62 63 64 63 63 63 62 62 62 62 61 61 61 61
70 69 69 70 69 68 69 69 68 68 66 66 66 66 63 58 57 59 61 64 63 63 63 63 63 62 62 62 62 61 61 61 61
69 70 70 69 70 69 68 69 69 68 66 67 67 66 62 58 57 59 62 65 63 63 63 63 62 62 62 62 62 61 61 60 60
69 69 69 69 69 68 68 68 69 68 67 68 66 64 62 58 56 58 62 65 64 63 63 63 62 62 62 62 61 61 61 60 60
68 67 68 68 69 68 67 68 68 67 67 67 67 65 64 59 55 56 62 65 63 63 63 63 63 62 62 61 61 61 60 60 60
67 67 66 67 67 68 68 68 68 67 66 66 66 66 64 59 56 55 61 65 64 64 63 63 63 62 62 61 61 60 60 60 60
67 66 66 66 66 67 68 68 68 67 66 65 65 65 63 60 58 57 59 65 64 64 64 63 63 63 62 62 61 60 60 60 59
65 64 64 64 66 66 67 67 67 66 65 64 64 64 63 61 59 58 59 64 65 64 64 64 63 63 63 62 62 61 61 60 60
63 62 63 64 65 66 66 66 66 66 65 64 63 63 63 62 60 58 58 63 66 65 64 64 64 63 63 63 63 62 62 61 61
64 63 63 64 65 66 66 66 65 65 65 64 62 61 62 61 60 58 58 62 65 66 65 64 64 64 63 63 63 63 63 62 62
63 63 63 63 64 65 66 66 65 65 65 64 63 61 58 59 59 57 58 61 63 64 65 65 65 65 63 62 63 64 64 64 63
62 62 63 63 64 65 65 64 64 64 64 64 64 63 60 56 55 56 56 59 61 62 64 65 64 66 65 63 63 64 65 65 65
61 61 62 63 63 63 64 64 64 63 63 63 63 63 61 61 61 60 58 55 58 59 60 63 64 64 65 63 62 64 65 66 66
61 61 61 61 61 62 62 62 63 62 62 62 62 63 63 63 63 62 61 60 54 56 57 58 60 62 64 64 62 62 64 65 66
58 59 60 60 60 60 60 60 60 60 60 58 58 60 62 62 62 62 61 59 56 51 53 54 55 57 61 62 63 63 63 64 65
56 57 58 59 60 59 59 59 59 58 59 56 57 54 56 60 61 61 60 59 59 58 53 52 53 54 54 57 60 62 62 62 63
54 55 58 59 60 58 58 58 58 56 59 59 53 53 51 55 59 60 60 60 60 59 58 56 53 53 54 55 56 59 61 62 61
48 52 53 54 58 58 57 58 58 58 56 58 59 58 55 52 50 54 58 59 59 59 59 58 57 54 54 54 54 55 57 60 60
45 47 50 50 51 53 58 58 58 58 57 57 57 57 57 57 55 53 54 55 56 58 58 58 58 57 55 54 55 55 56 58 60